Time,TemperatureF,DewpointF,PressureIn,WindDirection,WindDirectionDegrees,WindSpeedMPH,WindSpeedGustMPH,Humidity,HourlyPrecipIn,Conditions,Clouds,dailyrainin,SoftwareType,DateUTC
2013-02-18 00:00:00,46.8,14.3,29.86,North,0,0.0,0.0,27,0.00,,,0.00,WUHU216HW,2013-02-18 07:00:00,
2013-02-18 00:02:00,46.6,14.1,29.86,North,0,0.0,0.0,27,0.00,,,0.00,WUHU216HW,2013-02-18 07:02:00,
2013-02-18 00:03:00,46.6,14.1,29.86,North,0,0.0,0.0,27,0.00,,,0.00,WUHU216HW,2013-02-18 07:03:00,
2013-02-18 00:04:00,46.4,14.0,29.86,North,0,0.0,0.0,27,0.00,,,0.00,WUHU216HW,2013-02-18 07:04:00,
2013-02-18 00:06:00,46.4,14.0,29.86,North,0,0.0,0.0,27,0.00,,,0.00,WUHU216HW,2013-02-18 07:06:00,
2013-02-18 00:08:00,46.4,14.0,29.86,North,0,0.0,0.0,27,0.00,,,0.00,WUHU216HW,2013-02-18 07:08:00,
2013-02-18 00:09:00,46.4,14.0,29.86,North,0,0.0,0.0,27,0.00,,,0.00,WUHU216HW,2013-02-18 07:09:00,
2013-02-18 00:11:00,46.3,14.8,29.86,North,0,0.0,0.0,28,0.00,,,0.00,WUHU216HW,2013-02-18 07:11:00,
2013-02-18 00:12:00,46.3,14.8,29.86,North,0,0.0,0.0,28,0.00,,,0.00,WUHU216HW,2013-02-18 07:12:00,
2013-02-18 00:13:00,46.1,14.6,29.86,North,0,0.0,0.0,28,0.00,,,0.00,WUHU216HW,2013-02-18 07:13:00,
2013-02-18 00:14:00,46.1,14.6,29.86,North,0,0.0,0.0,28,0.00,,,0.00,WUHU216HW,2013-02-18 07:14:00,
2013-02-18 00:16:00,46.1,14.6,29.86,North,0,0.0,0.0,28,0.00,,,0.00,WUHU216HW,2013-02-18 07:16:00,
2013-02-18 00:18:00,45.9,14.4,29.86,North,0,0.0,0.0,28,0.00,,,0.00,WUHU216HW,2013-02-18 07:18:00,
2013-02-18 00:19:00,45.9,14.4,29.86,North,0,0.0,0.0,28,0.00,,,0.00,WUHU216HW,2013-02-18 07:19:00,
2013-02-18 00:20:00,45.9,14.4,29.86,North,0,0.0,0.0,28,0.00,,,0.00,WUHU216HW,2013-02-18 07:20:00,
2013-02-18 00:22:00,45.7,15.2,29.86,North,0,0.0,0.0,29,0.00,,,0.00,WUHU216HW,2013-02-18 07:22:00,
2013-02-18 00:24:00,45.5,14.1,29.86,North,0,0.0,0.0,28,0.00,,,0.00,WUHU216HW,2013-02-18 07:24:00,
2013-02-18 00:25:00,45.5,14.1,29.86,North,0,0.0,0.0,28,0.00,,,0.00,WUHU216HW,2013-02-18 07:25:00,
2013-02-18 00:28:00,45.4,14.0,29.86,North,0,0.0,0.0,28,0.00,,,0.00,WUHU216HW,2013-02-18 07:28:00,
2013-02-18 00:30:00,45.4,14.0,29.86,North,0,0.0,0.0,28,0.00,,,0.00,WUHU216HW,2013-02-18 07:30:00,
2013-02-18 00:33:00,45.0,13.7,29.86,North,0,0.0,0.0,28,0.00,,,0.00,WUHU216HW,2013-02-18 07:33:00,
2013-02-18 00:35:00,45.0,13.7,29.86,North,0,0.0,0.0,28,0.00,,,0.00,WUHU216HW,2013-02-18 07:35:00,
2013-02-18 00:36:00,45.0,13.7,29.87,North,0,0.0,0.0,28,0.00,,,0.00,WUHU216HW,2013-02-18 07:36:00,
2013-02-18 00:39:00,44.8,14.4,29.87,North,0,0.0,0.0,29,0.00,,,0.00,WUHU216HW,2013-02-18 07:39:00,
2013-02-18 00:40:00,44.8,14.4,29.87,North,0,0.0,0.0,29,0.00,,,0.00,WUHU216HW,2013-02-18 07:40:00,
2013-02-18 00:41:00,44.8,14.4,29.87,North,0,0.0,0.0,29,0.00,,,0.00,WUHU216HW,2013-02-18 07:41:00,
2013-02-18 00:44:00,44.6,14.2,29.87,North,0,0.0,0.0,29,0.00,,,0.00,WUHU216HW,2013-02-18 07:44:00,
2013-02-18 00:46:00,44.6,14.2,29.87,North,0,0.0,0.0,29,0.00,,,0.00,WUHU216HW,2013-02-18 07:46:00,
2013-02-18 00:47:00,44.5,14.0,29.87,North,0,0.0,0.0,29,0.00,,,0.00,WUHU216HW,2013-02-18 07:47:00,
2013-02-18 00:49:00,44.3,13.9,29.87,North,0,0.0,0.0,29,0.00,,,0.00,WUHU216HW,2013-02-18 07:49:00,
2013-02-18 00:52:00,44.3,13.9,29.87,North,0,0.0,0.0,29,0.00,,,0.00,WUHU216HW,2013-02-18 07:52:00,
2013-02-18 00:53:00,44.3,13.9,29.87,North,0,0.0,0.0,29,0.00,,,0.00,WUHU216HW,2013-02-18 07:53:00,
2013-02-18 00:54:00,44.3,13.9,29.87,North,0,0.0,0.0,29,0.00,,,0.00,WUHU216HW,2013-02-18 07:54:00,
2013-02-18 00:57:00,44.3,13.9,29.87,North,0,0.0,0.0,29,0.00,,,0.00,WUHU216HW,2013-02-18 07:57:00,
2013-02-18 00:58:00,44.3,13.9,29.87,North,0,0.0,0.0,29,0.00,,,0.00,WUHU216HW,2013-02-18 07:58:00,
2013-02-18 00:59:00,44.3,13.9,29.87,North,0,0.0,0.0,29,0.00,,,0.00,WUHU216HW,2013-02-18 07:59:00,
2013-02-18 01:02:00,44.3,13.9,29.87,North,0,0.0,0.0,29,0.00,,,0.00,WUHU216HW,2013-02-18 08:02:00,
2013-02-18 01:03:00,44.3,14.8,29.87,North,0,0.0,0.0,30,0.00,,,0.00,WUHU216HW,2013-02-18 08:03:00,
2013-02-18 01:05:00,44.5,14.9,29.87,North,0,0.0,0.0,30,0.00,,,0.00,WUHU216HW,2013-02-18 08:05:00,
2013-02-18 01:07:00,44.6,14.2,29.88,North,0,0.0,0.0,29,0.00,,,0.00,WUHU216HW,2013-02-18 08:07:00,
2013-02-18 01:08:00,44.6,14.2,29.88,North,0,0.0,0.0,29,0.00,,,0.00,WUHU216HW,2013-02-18 08:08:00,
2013-02-18 01:09:00,44.6,15.1,29.88,North,0,0.0,0.0,30,0.00,,,0.00,WUHU216HW,2013-02-18 08:09:00,
2013-02-18 01:11:00,44.5,14.9,29.88,North,0,0.0,0.0,30,0.00,,,0.00,WUHU216HW,2013-02-18 08:11:00,
2013-02-18 01:12:00,44.3,14.8,29.88,North,0,0.0,0.0,30,0.00,,,0.00,WUHU216HW,2013-02-18 08:12:00,
2013-02-18 01:13:00,44.3,13.9,29.88,North,0,0.0,0.0,29,0.00,,,0.00,WUHU216HW,2013-02-18 08:13:00,
2013-02-18 01:14:00,44.3,13.9,29.88,North,0,0.0,0.0,29,0.00,,,0.00,WUHU216HW,2013-02-18 08:14:00,
2013-02-18 01:17:00,44.1,14.7,29.88,North,0,0.0,0.0,30,0.00,,,0.00,WUHU216HW,2013-02-18 08:17:00,
2013-02-18 01:18:00,44.1,14.7,29.88,North,0,0.0,0.0,30,0.00,,,0.00,WUHU216HW,2013-02-18 08:18:00,
2013-02-18 01:19:00,44.1,14.7,29.88,North,0,0.0,0.0,30,0.00,,,0.00,WUHU216HW,2013-02-18 08:19:00,
2013-02-18 01:20:00,43.9,14.5,29.88,North,0,0.0,0.0,30,0.00,,,0.00,WUHU216HW,2013-02-18 08:20:00,
2013-02-18 01:22:00,43.9,14.5,29.88,North,0,0.0,0.0,30,0.00,,,0.00,WUHU216HW,2013-02-18 08:22:00,
2013-02-18 01:24:00,43.9,14.5,29.88,North,0,0.0,0.0,30,0.00,,,0.00,WUHU216HW,2013-02-18 08:24:00,
2013-02-18 01:25:00,43.9,14.5,29.88,North,0,0.0,0.0,30,0.00,,,0.00,WUHU216HW,2013-02-18 08:25:00,
2013-02-18 01:26:00,43.9,14.5,29.88,North,0,0.0,0.0,30,0.00,,,0.00,WUHU216HW,2013-02-18 08:26:00,
2013-02-18 01:28:00,43.9,14.5,29.88,North,0,0.0,0.0,30,0.00,,,0.00,WUHU216HW,2013-02-18 08:28:00,
2013-02-18 01:29:00,43.9,14.5,29.88,North,0,0.0,0.0,30,0.00,,,0.00,WUHU216HW,2013-02-18 08:29:00,
2013-02-18 01:30:00,43.7,14.3,29.88,North,0,0.0,0.0,30,0.00,,,0.00,WUHU216HW,2013-02-18 08:30:00,
2013-02-18 01:31:00,43.6,14.1,29.88,North,0,0.0,0.0,30,0.00,,,0.00,WUHU216HW,2013-02-18 08:31:00,
2013-02-18 01:33:00,43.6,14.1,29.88,North,0,0.0,0.0,30,0.00,,,0.00,WUHU216HW,2013-02-18 08:33:00,
2013-02-18 01:34:00,43.6,14.1,29.88,North,0,0.0,0.0,30,0.00,,,0.00,WUHU216HW,2013-02-18 08:34:00,
2013-02-18 01:36:00,43.6,14.1,29.88,North,0,0.0,0.0,30,0.00,,,0.00,WUHU216HW,2013-02-18 08:36:00,
2013-02-18 01:37:00,43.4,14.0,29.88,North,0,0.0,0.0,30,0.00,,,0.00,WUHU216HW,2013-02-18 08:37:00,
2013-02-18 01:38:00,43.4,14.0,29.88,North,0,0.0,0.0,30,0.00,,,0.00,WUHU216HW,2013-02-18 08:38:00,
2013-02-18 01:39:00,43.4,14.0,29.88,North,0,0.0,0.0,30,0.00,,,0.00,WUHU216HW,2013-02-18 08:39:00,
2013-02-18 01:42:00,43.2,13.9,29.88,North,0,0.0,0.0,30,0.00,,,0.00,WUHU216HW,2013-02-18 08:42:00,
2013-02-18 01:44:00,43.0,13.7,29.88,North,0,0.0,0.0,30,0.00,,,0.00,WUHU216HW,2013-02-18 08:44:00,
2013-02-18 01:45:00,43.0,13.7,29.88,North,0,0.0,0.0,30,0.00,,,0.00,WUHU216HW,2013-02-18 08:45:00,
2013-02-18 01:48:00,42.8,14.1,29.88,North,0,0.0,0.0,31,0.00,,,0.00,WUHU216HW,2013-02-18 08:48:00,
2013-02-18 01:49:00,42.7,14.1,29.88,North,0,0.0,0.0,31,0.00,,,0.00,WUHU216HW,2013-02-18 08:49:00,
2013-02-18 01:50:00,42.5,13.9,29.88,North,0,0.0,0.0,31,0.00,,,0.00,WUHU216HW,2013-02-18 08:50:00,
2013-02-18 01:53:00,42.3,13.8,29.88,North,0,0.0,0.0,31,0.00,,,0.00,WUHU216HW,2013-02-18 08:53:00,
2013-02-18 01:54:00,42.3,13.8,29.88,North,0,0.0,0.0,31,0.00,,,0.00,WUHU216HW,2013-02-18 08:54:00,
2013-02-18 01:55:00,42.3,13.8,29.88,North,0,0.0,0.0,31,0.00,,,0.00,WUHU216HW,2013-02-18 08:55:00,
2013-02-18 01:59:00,42.1,13.6,29.88,North,0,0.0,0.0,31,0.00,,,0.00,WUHU216HW,2013-02-18 08:59:00,
2013-02-18 02:00:00,41.9,13.4,29.88,North,0,0.0,0.0,31,0.00,,,0.00,WUHU216HW,2013-02-18 09:00:00,
2013-02-18 02:04:00,41.8,13.3,29.88,North,0,0.0,0.0,31,0.00,,,0.00,WUHU216HW,2013-02-18 09:04:00,
2013-02-18 02:05:00,41.8,13.3,29.88,North,0,0.0,0.0,31,0.00,,,0.00,WUHU216HW,2013-02-18 09:05:00,
2013-02-18 02:07:00,41.8,13.3,29.88,North,0,0.0,0.0,31,0.00,,,0.00,WUHU216HW,2013-02-18 09:07:00,
2013-02-18 02:09:00,41.6,13.8,29.88,North,0,0.0,0.0,32,0.00,,,0.00,WUHU216HW,2013-02-18 09:09:00,
2013-02-18 02:11:00,41.4,13.7,29.88,North,0,0.0,0.0,32,0.00,,,0.00,WUHU216HW,2013-02-18 09:11:00,
2013-02-18 02:13:00,41.4,13.7,29.88,North,0,0.0,0.0,32,0.00,,,0.00,WUHU216HW,2013-02-18 09:13:00,
2013-02-18 02:14:00,41.4,13.7,29.88,North,0,0.0,0.0,32,0.00,,,0.00,WUHU216HW,2013-02-18 09:14:00,
2013-02-18 02:16:00,41.4,13.7,29.88,North,0,0.0,0.0,32,0.00,,,0.00,WUHU216HW,2013-02-18 09:16:00,
2013-02-18 02:18:00,41.4,13.7,29.88,North,0,0.0,0.0,32,0.00,,,0.00,WUHU216HW,2013-02-18 09:18:00,
2013-02-18 02:20:00,41.4,13.7,29.88,North,0,0.0,0.0,32,0.00,,,0.00,WUHU216HW,2013-02-18 09:20:00,
2013-02-18 02:21:00,41.4,13.7,29.88,North,0,0.0,0.0,32,0.00,,,0.00,WUHU216HW,2013-02-18 09:21:00,
2013-02-18 02:24:00,41.4,13.7,29.88,North,0,0.0,0.0,32,0.00,,,0.00,WUHU216HW,2013-02-18 09:24:00,
2013-02-18 02:25:00,41.6,13.8,29.88,North,0,0.0,0.0,32,0.00,,,0.00,WUHU216HW,2013-02-18 09:25:00,
2013-02-18 02:27:00,41.6,13.8,29.88,North,0,0.0,0.0,32,0.00,,,0.00,WUHU216HW,2013-02-18 09:27:00,
2013-02-18 02:28:00,41.8,14.0,29.89,North,0,0.0,0.0,32,0.00,,,0.00,WUHU216HW,2013-02-18 09:28:00,
2013-02-18 02:30:00,41.6,13.8,29.89,North,0,0.0,0.0,32,0.00,,,0.00,WUHU216HW,2013-02-18 09:30:00,
2013-02-18 02:33:00,41.4,13.7,29.89,North,0,0.0,0.0,32,0.00,,,0.00,WUHU216HW,2013-02-18 09:33:00,
2013-02-18 02:35:00,41.0,13.3,29.88,North,0,0.0,0.0,32,0.00,,,0.00,WUHU216HW,2013-02-18 09:35:00,
2013-02-18 02:36:00,41.0,13.3,29.88,North,0,0.0,0.0,32,0.00,,,0.00,WUHU216HW,2013-02-18 09:36:00,
2013-02-18 02:38:00,40.9,13.2,29.89,North,0,0.0,0.0,32,0.00,,,0.00,WUHU216HW,2013-02-18 09:38:00,
2013-02-18 02:39:00,40.9,13.2,29.89,North,0,0.0,0.0,32,0.00,,,0.00,WUHU216HW,2013-02-18 09:39:00,
2013-02-18 02:41:00,40.9,13.2,29.89,North,0,0.0,0.0,32,0.00,,,0.00,WUHU216HW,2013-02-18 09:41:00,
2013-02-18 02:42:00,40.9,13.2,29.89,North,0,0.0,0.0,32,0.00,,,0.00,WUHU216HW,2013-02-18 09:42:00,
2013-02-18 02:44:00,40.7,13.1,29.89,North,0,0.0,0.0,32,0.00,,,0.00,WUHU216HW,2013-02-18 09:44:00,
2013-02-18 02:47:00,40.7,13.1,29.89,North,0,0.0,0.0,32,0.00,,,0.00,WUHU216HW,2013-02-18 09:47:00,
2013-02-18 02:49:00,40.7,13.7,29.89,North,0,0.0,0.0,33,0.00,,,0.00,WUHU216HW,2013-02-18 09:49:00,
2013-02-18 02:50:00,40.7,13.7,29.89,North,0,0.0,0.0,33,0.00,,,0.00,WUHU216HW,2013-02-18 09:50:00,
2013-02-18 02:52:00,40.7,13.7,29.89,North,0,0.0,0.0,33,0.00,,,0.00,WUHU216HW,2013-02-18 09:52:00,
2013-02-18 02:53:00,40.5,13.5,29.89,North,0,0.0,0.0,33,0.00,,,0.00,WUHU216HW,2013-02-18 09:53:00,
2013-02-18 02:54:00,40.5,13.5,29.89,North,0,0.0,0.0,33,0.00,,,0.00,WUHU216HW,2013-02-18 09:54:00,
2013-02-18 02:56:00,40.3,13.3,29.89,North,0,0.0,0.0,33,0.00,,,0.00,WUHU216HW,2013-02-18 09:56:00,
2013-02-18 02:58:00,40.3,13.3,29.89,North,0,0.0,0.0,33,0.00,,,0.00,WUHU216HW,2013-02-18 09:58:00,
2013-02-18 02:59:00,40.3,13.3,29.89,North,0,0.0,0.0,33,0.00,,,0.00,WUHU216HW,2013-02-18 09:59:00,
2013-02-18 03:00:00,40.1,13.2,29.89,North,0,0.0,0.0,33,0.00,,,0.00,WUHU216HW,2013-02-18 10:00:00,
2013-02-18 03:02:00,40.1,13.2,29.90,North,0,0.0,0.0,33,0.00,,,0.00,WUHU216HW,2013-02-18 10:02:00,
2013-02-18 03:04:00,40.1,13.9,29.90,North,0,0.0,0.0,34,0.00,,,0.00,WUHU216HW,2013-02-18 10:04:00,
2013-02-18 03:05:00,40.1,13.9,29.89,North,0,0.0,0.0,34,0.00,,,0.00,WUHU216HW,2013-02-18 10:05:00,
2013-02-18 03:07:00,40.0,14.3,29.90,North,0,0.0,0.0,35,0.00,,,0.00,WUHU216HW,2013-02-18 10:07:00,
2013-02-18 03:09:00,40.0,14.3,29.89,North,0,0.0,0.0,35,0.00,,,0.00,WUHU216HW,2013-02-18 10:09:00,
2013-02-18 03:10:00,40.0,14.3,29.90,North,0,0.0,0.0,35,0.00,,,0.00,WUHU216HW,2013-02-18 10:10:00,
2013-02-18 03:13:00,40.0,14.3,29.90,North,0,0.0,0.0,35,0.00,,,0.00,WUHU216HW,2013-02-18 10:13:00,
2013-02-18 03:15:00,40.0,14.3,29.90,North,0,0.0,0.0,35,0.00,,,0.00,WUHU216HW,2013-02-18 10:15:00,
2013-02-18 03:16:00,39.8,14.1,29.90,North,0,0.0,0.0,35,0.00,,,0.00,WUHU216HW,2013-02-18 10:16:00,
2013-02-18 03:17:00,39.8,14.1,29.90,North,0,0.0,0.0,35,0.00,,,0.00,WUHU216HW,2013-02-18 10:17:00,
2013-02-18 03:18:00,39.8,14.1,29.90,North,0,0.0,0.0,35,0.00,,,0.00,WUHU216HW,2013-02-18 10:18:00,
2013-02-18 03:20:00,39.8,14.9,29.90,North,0,0.0,0.0,36,0.00,,,0.00,WUHU216HW,2013-02-18 10:20:00,
2013-02-18 03:21:00,39.8,14.9,29.90,North,0,0.0,0.0,36,0.00,,,0.00,WUHU216HW,2013-02-18 10:21:00,
2013-02-18 03:22:00,39.6,14.7,29.90,North,0,0.0,0.0,36,0.00,,,0.00,WUHU216HW,2013-02-18 10:22:00,
2013-02-18 03:23:00,39.6,14.7,29.90,North,0,0.0,0.0,36,0.00,,,0.00,WUHU216HW,2013-02-18 10:23:00,
2013-02-18 03:26:00,39.6,14.7,29.90,North,0,0.0,0.0,36,0.00,,,0.00,WUHU216HW,2013-02-18 10:26:00,
2013-02-18 03:28:00,39.4,15.1,29.90,North,0,0.0,0.0,37,0.00,,,0.00,WUHU216HW,2013-02-18 10:28:00,
2013-02-18 03:31:00,39.2,14.9,29.90,North,0,0.0,0.0,37,0.00,,,0.00,WUHU216HW,2013-02-18 10:31:00,
2013-02-18 03:34:00,39.2,14.9,29.90,North,0,0.0,0.0,37,0.00,,,0.00,WUHU216HW,2013-02-18 10:34:00,
2013-02-18 03:36:00,39.2,14.9,29.90,North,0,0.0,0.0,37,0.00,,,0.00,WUHU216HW,2013-02-18 10:36:00,
2013-02-18 03:39:00,39.2,14.3,29.90,North,0,0.0,0.0,36,0.00,,,0.00,WUHU216HW,2013-02-18 10:39:00,
2013-02-18 03:40:00,39.1,14.1,29.90,North,0,0.0,0.0,36,0.00,,,0.00,WUHU216HW,2013-02-18 10:40:00,
2013-02-18 03:42:00,39.1,14.1,29.90,North,0,0.0,0.0,36,0.00,,,0.00,WUHU216HW,2013-02-18 10:42:00,
2013-02-18 03:44:00,39.1,14.9,29.90,North,0,0.0,0.0,37,0.00,,,0.00,WUHU216HW,2013-02-18 10:44:00,
2013-02-18 03:45:00,39.1,14.9,29.90,North,0,0.0,0.0,37,0.00,,,0.00,WUHU216HW,2013-02-18 10:45:00,
2013-02-18 03:47:00,38.9,14.7,29.90,North,0,0.0,0.0,37,0.00,,,0.00,WUHU216HW,2013-02-18 10:47:00,
2013-02-18 03:50:00,38.9,14.7,29.90,North,0,0.0,0.0,37,0.00,,,0.00,WUHU216HW,2013-02-18 10:50:00,
2013-02-18 03:53:00,38.7,14.5,29.90,North,0,0.0,0.0,37,0.00,,,0.00,WUHU216HW,2013-02-18 10:53:00,
2013-02-18 03:55:00,38.7,14.5,29.90,North,0,0.0,0.0,37,0.00,,,0.00,WUHU216HW,2013-02-18 10:55:00,
2013-02-18 03:56:00,38.7,14.5,29.90,North,0,0.0,0.0,37,0.00,,,0.00,WUHU216HW,2013-02-18 10:56:00,
2013-02-18 03:59:00,38.7,14.5,29.89,North,0,0.0,0.0,37,0.00,,,0.00,WUHU216HW,2013-02-18 10:59:00,
2013-02-18 04:01:00,38.7,14.5,29.89,North,0,0.0,0.0,37,0.00,,,0.00,WUHU216HW,2013-02-18 11:01:00,
2013-02-18 04:02:00,38.7,14.5,29.90,North,0,0.0,0.0,37,0.00,,,0.00,WUHU216HW,2013-02-18 11:02:00,
2013-02-18 04:05:00,38.7,14.5,29.90,North,0,0.0,0.0,37,0.00,,,0.00,WUHU216HW,2013-02-18 11:05:00,
2013-02-18 04:06:00,38.7,14.5,29.90,North,0,0.0,0.0,37,0.00,,,0.00,WUHU216HW,2013-02-18 11:06:00,
2013-02-18 04:08:00,38.7,14.5,29.90,North,0,0.0,0.0,37,0.00,,,0.00,WUHU216HW,2013-02-18 11:08:00,
2013-02-18 04:10:00,38.7,14.5,29.90,North,0,0.0,0.0,37,0.00,,,0.00,WUHU216HW,2013-02-18 11:10:00,
2013-02-18 04:11:00,38.9,14.7,29.90,North,0,0.0,0.0,37,0.00,,,0.00,WUHU216HW,2013-02-18 11:11:00,
2013-02-18 04:14:00,38.7,14.5,29.90,North,0,0.0,0.0,37,0.00,,,0.00,WUHU216HW,2013-02-18 11:14:00,
2013-02-18 04:15:00,38.7,14.5,29.90,North,0,0.0,0.0,37,0.00,,,0.00,WUHU216HW,2013-02-18 11:15:00,
2013-02-18 04:16:00,38.5,14.3,29.90,North,0,0.0,0.0,37,0.00,,,0.00,WUHU216HW,2013-02-18 11:16:00,
2013-02-18 04:20:00,38.5,14.9,29.90,North,0,0.0,0.0,38,0.00,,,0.00,WUHU216HW,2013-02-18 11:20:00,
2013-02-18 04:22:00,38.5,14.3,29.90,North,0,0.0,0.0,37,0.00,,,0.00,WUHU216HW,2013-02-18 11:22:00,
2013-02-18 04:25:00,38.3,14.1,29.91,North,0,0.0,0.0,37,0.00,,,0.00,WUHU216HW,2013-02-18 11:25:00,
2013-02-18 04:27:00,38.2,14.7,29.91,North,0,0.0,0.0,38,0.00,,,0.00,WUHU216HW,2013-02-18 11:27:00,
2013-02-18 04:29:00,38.2,14.7,29.91,North,0,0.0,0.0,38,0.00,,,0.00,WUHU216HW,2013-02-18 11:29:00,
2013-02-18 04:30:00,38.3,14.9,29.91,North,0,0.0,0.0,38,0.00,,,0.00,WUHU216HW,2013-02-18 11:30:00,
2013-02-18 04:32:00,38.3,15.5,29.91,North,0,0.0,0.0,39,0.00,,,0.00,WUHU216HW,2013-02-18 11:32:00,
2013-02-18 04:35:00,38.5,14.9,29.91,North,0,0.0,0.0,38,0.00,,,0.00,WUHU216HW,2013-02-18 11:35:00,
2013-02-18 04:36:00,38.5,14.9,29.91,North,0,0.0,0.0,38,0.00,,,0.00,WUHU216HW,2013-02-18 11:36:00,
2013-02-18 04:37:00,38.5,14.9,29.91,North,0,0.0,0.0,38,0.00,,,0.00,WUHU216HW,2013-02-18 11:37:00,
2013-02-18 04:40:00,38.5,14.9,29.91,North,0,0.0,0.0,38,0.00,,,0.00,WUHU216HW,2013-02-18 11:40:00,
2013-02-18 04:41:00,38.5,14.9,29.91,North,0,0.0,0.0,38,0.00,,,0.00,WUHU216HW,2013-02-18 11:41:00,
2013-02-18 04:43:00,38.5,14.9,29.91,North,0,0.0,0.0,38,0.00,,,0.00,WUHU216HW,2013-02-18 11:43:00,
2013-02-18 04:45:00,38.5,14.9,29.91,North,0,0.0,0.0,38,0.00,,,0.00,WUHU216HW,2013-02-18 11:45:00,
2013-02-18 04:46:00,38.5,14.9,29.91,North,0,0.0,0.0,38,0.00,,,0.00,WUHU216HW,2013-02-18 11:46:00,
2013-02-18 04:48:00,38.5,14.9,29.91,North,0,0.0,0.0,38,0.00,,,0.00,WUHU216HW,2013-02-18 11:48:00,
2013-02-18 04:50:00,38.5,15.7,29.91,North,0,0.0,0.0,39,0.00,,,0.00,WUHU216HW,2013-02-18 11:50:00,
2013-02-18 04:51:00,38.3,15.5,29.91,North,0,0.0,0.0,39,0.00,,,0.00,WUHU216HW,2013-02-18 11:51:00,
2013-02-18 04:53:00,38.3,15.5,29.91,North,0,0.0,0.0,39,0.00,,,0.00,WUHU216HW,2013-02-18 11:53:00,
2013-02-18 04:56:00,38.2,14.7,29.91,North,0,0.0,0.0,38,0.00,,,0.00,WUHU216HW,2013-02-18 11:56:00,
2013-02-18 04:57:00,38.3,15.5,29.91,North,0,0.0,0.0,39,0.00,,,0.00,WUHU216HW,2013-02-18 11:57:00,
2013-02-18 04:59:00,38.2,15.3,29.91,North,0,0.0,0.0,39,0.00,,,0.00,WUHU216HW,2013-02-18 11:59:00,
2013-02-18 05:02:00,38.2,15.3,29.91,North,0,0.0,0.0,39,0.00,,,0.00,WUHU216HW,2013-02-18 12:02:00,
2013-02-18 05:03:00,38.2,15.3,29.91,North,0,0.0,0.0,39,0.00,,,0.00,WUHU216HW,2013-02-18 12:03:00,
2013-02-18 05:04:00,38.2,15.3,29.91,North,0,0.0,0.0,39,0.00,,,0.00,WUHU216HW,2013-02-18 12:04:00,
2013-02-18 05:07:00,38.2,15.3,29.92,North,0,0.0,0.0,39,0.00,,,0.00,WUHU216HW,2013-02-18 12:07:00,
2013-02-18 05:09:00,38.2,15.3,29.92,North,0,0.0,0.0,39,0.00,,,0.00,WUHU216HW,2013-02-18 12:09:00,
2013-02-18 05:10:00,38.2,15.3,29.92,North,0,0.0,0.0,39,0.00,,,0.00,WUHU216HW,2013-02-18 12:10:00,
2013-02-18 05:12:00,38.2,15.3,29.92,North,0,0.0,0.0,39,0.00,,,0.00,WUHU216HW,2013-02-18 12:12:00,
2013-02-18 05:14:00,38.2,15.3,29.92,North,0,0.0,0.0,39,0.00,,,0.00,WUHU216HW,2013-02-18 12:14:00,
2013-02-18 05:15:00,38.2,15.3,29.92,North,0,0.0,0.0,39,0.00,,,0.00,WUHU216HW,2013-02-18 12:15:00,
2013-02-18 05:18:00,38.0,15.1,29.92,North,0,0.0,0.0,39,0.00,,,0.00,WUHU216HW,2013-02-18 12:18:00,
2013-02-18 05:19:00,38.0,15.1,29.92,North,0,0.0,0.0,39,0.00,,,0.00,WUHU216HW,2013-02-18 12:19:00,
2013-02-18 05:20:00,38.0,15.1,29.92,North,0,0.0,0.0,39,0.00,,,0.00,WUHU216HW,2013-02-18 12:20:00,
2013-02-18 05:24:00,37.8,14.9,29.92,North,0,0.0,0.0,39,0.00,,,0.00,WUHU216HW,2013-02-18 12:24:00,
2013-02-18 05:25:00,37.8,14.9,29.92,North,0,0.0,0.0,39,0.00,,,0.00,WUHU216HW,2013-02-18 12:25:00,
2013-02-18 05:29:00,37.8,14.9,29.92,North,0,0.0,0.0,39,0.00,,,0.00,WUHU216HW,2013-02-18 12:29:00,
2013-02-18 05:30:00,37.8,14.9,29.92,North,0,0.0,0.0,39,0.00,,,0.00,WUHU216HW,2013-02-18 12:30:00,
2013-02-18 05:31:00,37.8,14.9,29.92,North,0,0.0,0.0,39,0.00,,,0.00,WUHU216HW,2013-02-18 12:31:00,
2013-02-18 05:35:00,37.6,14.9,29.92,North,0,0.0,0.0,39,0.00,,,0.00,WUHU216HW,2013-02-18 12:35:00,
2013-02-18 05:37:00,37.4,14.7,29.93,North,0,0.0,0.0,39,0.00,,,0.00,WUHU216HW,2013-02-18 12:37:00,
2013-02-18 05:40:00,37.3,15.1,29.92,North,0,0.0,0.0,40,0.00,,,0.00,WUHU216HW,2013-02-18 12:40:00,
2013-02-18 05:41:00,37.3,14.5,29.93,North,0,0.0,0.0,39,0.00,,,0.00,WUHU216HW,2013-02-18 12:41:00,
2013-02-18 05:42:00,37.1,14.9,29.93,North,0,0.0,0.0,40,0.00,,,0.00,WUHU216HW,2013-02-18 12:42:00,
2013-02-18 05:45:00,37.1,14.9,29.93,North,0,0.0,0.0,40,0.00,,,0.00,WUHU216HW,2013-02-18 12:45:00,
2013-02-18 05:47:00,36.9,14.9,29.93,North,0,0.0,0.0,40,0.00,,,0.00,WUHU216HW,2013-02-18 12:47:00,
2013-02-18 05:48:00,36.9,14.9,29.93,North,0,0.0,0.0,40,0.00,,,0.00,WUHU216HW,2013-02-18 12:48:00,
2013-02-18 05:50:00,36.7,14.7,29.93,North,0,0.0,0.0,40,0.00,,,0.00,WUHU216HW,2013-02-18 12:50:00,
2013-02-18 05:52:00,36.7,14.7,29.93,North,0,0.0,0.0,40,0.00,,,0.00,WUHU216HW,2013-02-18 12:52:00,
2013-02-18 05:53:00,36.7,14.7,29.93,North,0,0.0,0.0,40,0.00,,,0.00,WUHU216HW,2013-02-18 12:53:00,
2013-02-18 05:56:00,36.5,14.5,29.93,North,0,0.0,0.0,40,0.00,,,0.00,WUHU216HW,2013-02-18 12:56:00,
2013-02-18 05:57:00,36.5,14.5,29.93,North,0,0.0,0.0,40,0.00,,,0.00,WUHU216HW,2013-02-18 12:57:00,
2013-02-18 05:58:00,36.5,14.5,29.93,North,0,0.0,0.0,40,0.00,,,0.00,WUHU216HW,2013-02-18 12:58:00,
2013-02-18 06:01:00,36.5,14.5,29.93,North,0,0.0,0.0,40,0.00,,,0.00,WUHU216HW,2013-02-18 13:01:00,
2013-02-18 06:02:00,36.5,14.5,29.93,North,0,0.0,0.0,40,0.00,,,0.00,WUHU216HW,2013-02-18 13:02:00,
2013-02-18 06:03:00,36.5,14.5,29.93,North,0,0.0,0.0,40,0.00,,,0.00,WUHU216HW,2013-02-18 13:03:00,
2013-02-18 06:07:00,36.5,15.0,29.93,North,0,0.0,0.0,41,0.00,,,0.00,WUHU216HW,2013-02-18 13:07:00,
2013-02-18 06:09:00,36.5,15.0,29.93,North,0,0.0,0.0,41,0.00,,,0.00,WUHU216HW,2013-02-18 13:09:00,
2013-02-18 06:12:00,36.4,14.9,29.93,North,0,0.0,0.0,41,0.00,,,0.00,WUHU216HW,2013-02-18 13:12:00,
2013-02-18 06:14:00,36.4,14.9,29.93,North,0,0.0,0.0,41,0.00,,,0.00,WUHU216HW,2013-02-18 13:14:00,
2013-02-18 06:19:00,36.5,16.0,29.94,North,0,0.0,0.0,43,0.00,,,0.00,WUHU216HW,2013-02-18 13:19:00,
2013-02-18 06:20:00,36.5,16.0,29.93,North,0,0.0,0.0,43,0.00,,,0.00,WUHU216HW,2013-02-18 13:20:00,
2013-02-18 06:24:00,36.7,15.7,29.94,North,0,0.0,0.0,42,0.00,,,0.00,WUHU216HW,2013-02-18 13:24:00,
2013-02-18 06:25:00,36.7,15.7,29.94,North,0,0.0,0.0,42,0.00,,,0.00,WUHU216HW,2013-02-18 13:25:00,
2013-02-18 06:29:00,36.9,15.8,29.94,North,0,0.0,0.0,42,0.00,,,0.00,WUHU216HW,2013-02-18 13:29:00,
2013-02-18 06:30:00,36.9,15.8,29.94,North,0,0.0,0.0,42,0.00,,,0.00,WUHU216HW,2013-02-18 13:30:00,
2013-02-18 06:31:00,36.9,15.8,29.94,North,0,0.0,0.0,42,0.00,,,0.00,WUHU216HW,2013-02-18 13:31:00,
2013-02-18 06:34:00,36.7,15.7,29.94,North,0,0.0,0.0,42,0.00,,,0.00,WUHU216HW,2013-02-18 13:34:00,
2013-02-18 06:36:00,36.7,15.7,29.94,North,0,0.0,0.0,42,0.00,,,0.00,WUHU216HW,2013-02-18 13:36:00,
2013-02-18 06:37:00,36.7,15.7,29.94,North,0,0.0,0.0,42,0.00,,,0.00,WUHU216HW,2013-02-18 13:37:00,
2013-02-18 06:40:00,36.7,15.7,29.94,North,0,0.0,0.0,42,0.00,,,0.00,WUHU216HW,2013-02-18 13:40:00,
2013-02-18 06:41:00,36.5,15.6,29.94,North,0,0.0,0.0,42,0.00,,,0.00,WUHU216HW,2013-02-18 13:41:00,
2013-02-18 06:43:00,36.5,15.6,29.94,North,0,0.0,0.0,42,0.00,,,0.00,WUHU216HW,2013-02-18 13:43:00,
2013-02-18 06:45:00,36.5,15.6,29.94,North,0,0.0,0.0,42,0.00,,,0.00,WUHU216HW,2013-02-18 13:45:00,
2013-02-18 06:46:00,36.5,15.6,29.94,North,0,0.0,0.0,42,0.00,,,0.00,WUHU216HW,2013-02-18 13:46:00,
2013-02-18 06:50:00,36.4,15.4,29.94,North,0,0.0,0.0,42,0.00,,,0.00,WUHU216HW,2013-02-18 13:50:00,
2013-02-18 06:51:00,36.4,15.4,29.94,North,0,0.0,0.0,42,0.00,,,0.00,WUHU216HW,2013-02-18 13:51:00,
2013-02-18 06:55:00,36.2,15.2,29.94,North,0,0.0,0.0,42,0.00,,,0.00,WUHU216HW,2013-02-18 13:55:00,
2013-02-18 06:56:00,36.2,15.2,29.94,North,0,0.0,0.0,42,0.00,,,0.00,WUHU216HW,2013-02-18 13:56:00,
2013-02-18 06:57:00,36.2,15.2,29.94,North,0,0.0,0.0,42,0.00,,,0.00,WUHU216HW,2013-02-18 13:57:00,
2013-02-18 07:01:00,36.0,14.5,29.95,North,0,0.0,0.0,41,0.00,,,0.00,WUHU216HW,2013-02-18 14:01:00,
2013-02-18 07:02:00,36.0,14.5,29.95,North,0,0.0,0.0,41,0.00,,,0.00,WUHU216HW,2013-02-18 14:02:00,
2013-02-18 07:07:00,35.8,14.4,29.95,North,0,0.0,0.0,41,0.00,,,0.00,WUHU216HW,2013-02-18 14:07:00,
2013-02-18 07:12:00,35.6,14.8,29.95,North,0,0.0,0.0,42,0.00,,,0.00,WUHU216HW,2013-02-18 14:12:00,
2013-02-18 07:13:00,35.6,14.8,29.95,North,0,0.0,0.0,42,0.00,,,0.00,WUHU216HW,2013-02-18 14:13:00,
2013-02-18 07:17:00,35.6,15.2,29.95,North,0,0.0,0.0,43,0.00,,,0.00,WUHU216HW,2013-02-18 14:17:00,
2013-02-18 07:18:00,35.6,14.8,29.95,North,0,0.0,0.0,42,0.00,,,0.00,WUHU216HW,2013-02-18 14:18:00,
2013-02-18 07:19:00,35.6,14.8,29.95,North,0,0.0,0.0,42,0.00,,,0.00,WUHU216HW,2013-02-18 14:19:00,
2013-02-18 07:23:00,35.6,14.8,29.96,North,0,0.0,0.0,42,0.00,,,0.00,WUHU216HW,2013-02-18 14:23:00,
2013-02-18 07:24:00,35.6,14.8,29.96,North,0,0.0,0.0,42,0.00,,,0.00,WUHU216HW,2013-02-18 14:24:00,
2013-02-18 07:25:00,35.6,14.8,29.96,North,0,0.0,0.0,42,0.00,,,0.00,WUHU216HW,2013-02-18 14:25:00,
2013-02-18 07:28:00,35.6,14.8,29.96,North,0,0.0,0.0,42,0.00,,,0.00,WUHU216HW,2013-02-18 14:28:00,
2013-02-18 07:29:00,35.6,14.8,29.96,North,0,0.0,0.0,42,0.00,,,0.00,WUHU216HW,2013-02-18 14:29:00,
2013-02-18 07:30:00,35.6,14.8,29.96,North,0,0.0,0.0,42,0.00,,,0.00,WUHU216HW,2013-02-18 14:30:00,
2013-02-18 07:33:00,35.6,14.8,29.96,North,0,0.0,0.0,42,0.00,,,0.00,WUHU216HW,2013-02-18 14:33:00,
2013-02-18 07:34:00,35.6,14.8,29.96,North,0,0.0,0.0,42,0.00,,,0.00,WUHU216HW,2013-02-18 14:34:00,
2013-02-18 07:35:00,35.6,14.8,29.96,North,0,0.0,0.0,42,0.00,,,0.00,WUHU216HW,2013-02-18 14:35:00,
2013-02-18 07:38:00,35.8,14.9,29.96,North,0,0.0,0.0,42,0.00,,,0.00,WUHU216HW,2013-02-18 14:38:00,
2013-02-18 07:39:00,35.8,14.9,29.96,North,0,0.0,0.0,42,0.00,,,0.00,WUHU216HW,2013-02-18 14:39:00,
2013-02-18 07:41:00,36.0,15.0,29.96,North,0,0.0,0.0,42,0.00,,,0.00,WUHU216HW,2013-02-18 14:41:00,
2013-02-18 07:44:00,36.2,15.8,29.96,North,0,0.0,0.0,43,0.00,,,0.00,WUHU216HW,2013-02-18 14:44:00,
2013-02-18 07:46:00,36.4,15.9,29.96,North,0,0.0,0.0,43,0.00,,,0.00,WUHU216HW,2013-02-18 14:46:00,
2013-02-18 07:49:00,36.7,16.2,29.97,North,0,0.0,0.0,43,0.00,,,0.00,WUHU216HW,2013-02-18 14:49:00,
2013-02-18 07:50:00,36.7,16.2,29.97,North,0,0.0,0.0,43,0.00,,,0.00,WUHU216HW,2013-02-18 14:50:00,
2013-02-18 07:51:00,37.1,16.6,29.97,North,0,0.0,0.0,43,0.00,,,0.00,WUHU216HW,2013-02-18 14:51:00,
2013-02-18 07:54:00,37.4,16.8,29.97,North,0,0.0,0.0,43,0.00,,,0.00,WUHU216HW,2013-02-18 14:54:00,
2013-02-18 07:55:00,37.4,16.8,29.97,North,0,0.0,0.0,43,0.00,,,0.00,WUHU216HW,2013-02-18 14:55:00,
2013-02-18 07:58:00,37.8,17.2,29.97,North,0,0.0,0.0,43,0.00,,,0.00,WUHU216HW,2013-02-18 14:58:00,
2013-02-18 07:59:00,38.0,17.4,29.97,North,0,0.0,0.0,43,0.00,,,0.00,WUHU216HW,2013-02-18 14:59:00,
2013-02-18 08:00:00,38.0,17.4,29.97,North,0,0.0,0.0,43,0.00,,,0.00,WUHU216HW,2013-02-18 15:00:00,
2013-02-18 08:05:00,38.5,17.8,29.97,North,0,0.0,0.0,43,0.00,,,0.00,WUHU216HW,2013-02-18 15:05:00,
2013-02-18 08:06:00,38.5,17.8,29.97,North,0,0.0,0.0,43,0.00,,,0.00,WUHU216HW,2013-02-18 15:06:00,
2013-02-18 08:10:00,38.7,17.5,29.98,North,0,0.0,0.0,42,0.00,,,0.00,WUHU216HW,2013-02-18 15:10:00,
2013-02-18 08:11:00,38.7,17.5,29.98,North,0,0.0,0.0,42,0.00,,,0.00,WUHU216HW,2013-02-18 15:11:00,
2013-02-18 08:15:00,39.2,18.0,29.98,North,0,0.0,0.0,42,0.00,,,0.00,WUHU216HW,2013-02-18 15:15:00,
2013-02-18 08:16:00,39.2,18.0,29.98,North,0,0.0,0.0,42,0.00,,,0.00,WUHU216HW,2013-02-18 15:16:00,
2013-02-18 08:21:00,39.6,18.3,29.98,North,0,0.0,0.0,42,0.00,,,0.00,WUHU216HW,2013-02-18 15:21:00,
2013-02-18 08:22:00,39.6,18.3,29.98,North,0,0.0,0.0,42,0.00,,,0.00,WUHU216HW,2013-02-18 15:22:00,
2013-02-18 08:26:00,40.0,18.6,29.98,North,0,0.0,0.0,42,0.00,,,0.00,WUHU216HW,2013-02-18 15:26:00,
2013-02-18 08:27:00,40.0,18.6,29.98,North,0,0.0,0.0,42,0.00,,,0.00,WUHU216HW,2013-02-18 15:27:00,
2013-02-18 08:28:00,40.0,18.6,29.98,North,0,0.0,0.0,42,0.00,,,0.00,WUHU216HW,2013-02-18 15:28:00,
2013-02-18 08:33:00,40.5,18.5,29.99,North,0,0.0,0.0,41,0.00,,,0.00,WUHU216HW,2013-02-18 15:33:00,
2013-02-18 08:38:00,40.9,18.9,29.99,North,0,0.0,0.0,41,0.00,,,0.00,WUHU216HW,2013-02-18 15:38:00,
2013-02-18 08:39:00,40.9,18.9,29.99,North,0,0.0,0.0,41,0.00,,,0.00,WUHU216HW,2013-02-18 15:39:00,
2013-02-18 08:43:00,41.0,18.5,29.99,North,0,0.0,0.0,40,0.00,,,0.00,WUHU216HW,2013-02-18 15:43:00,
2013-02-18 08:44:00,41.0,18.5,29.99,North,0,0.0,0.0,40,0.00,,,0.00,WUHU216HW,2013-02-18 15:44:00,
2013-02-18 08:49:00,41.4,18.9,29.99,North,0,0.0,0.0,40,0.00,,,0.00,WUHU216HW,2013-02-18 15:49:00,
2013-02-18 08:50:00,41.6,19.0,29.99,North,0,0.0,0.0,40,0.00,,,0.00,WUHU216HW,2013-02-18 15:50:00,
2013-02-18 08:54:00,42.1,19.5,29.99,North,0,0.0,0.0,40,0.00,,,0.00,WUHU216HW,2013-02-18 15:54:00,
2013-02-18 08:56:00,42.1,19.5,29.99,North,0,0.0,0.0,40,0.00,,,0.00,WUHU216HW,2013-02-18 15:56:00,
2013-02-18 08:59:00,42.7,19.4,29.99,North,0,0.0,0.0,39,0.00,,,0.00,WUHU216HW,2013-02-18 15:59:00,
2013-02-18 09:00:00,42.7,19.4,29.99,North,0,0.0,0.0,39,0.00,,,0.00,WUHU216HW,2013-02-18 16:00:00,
2013-02-18 09:01:00,42.7,19.4,29.99,North,0,0.0,0.0,39,0.00,,,0.00,WUHU216HW,2013-02-18 16:01:00,
2013-02-18 09:05:00,42.8,18.8,29.99,North,0,0.0,0.0,38,0.00,,,0.00,WUHU216HW,2013-02-18 16:05:00,
2013-02-18 09:06:00,43.0,19.0,29.99,North,0,0.0,0.0,38,0.00,,,0.00,WUHU216HW,2013-02-18 16:06:00,
2013-02-18 09:10:00,43.2,19.2,29.98,North,0,0.0,0.0,38,0.00,,,0.00,WUHU216HW,2013-02-18 16:10:00,
2013-02-18 09:11:00,43.2,19.2,29.99,North,0,0.0,0.0,38,0.00,,,0.00,WUHU216HW,2013-02-18 16:11:00,
2013-02-18 09:15:00,43.6,19.4,29.99,North,0,0.0,0.0,38,0.00,,,0.00,WUHU216HW,2013-02-18 16:15:00,
2013-02-18 09:16:00,43.6,19.4,29.99,North,0,0.0,0.0,38,0.00,,,0.00,WUHU216HW,2013-02-18 16:16:00,
2013-02-18 09:20:00,44.1,20.0,29.99,North,0,0.0,0.0,38,0.00,,,0.00,WUHU216HW,2013-02-18 16:20:00,
2013-02-18 09:21:00,44.1,19.3,29.99,North,0,0.0,0.0,37,0.00,,,0.00,WUHU216HW,2013-02-18 16:21:00,
2013-02-18 09:22:00,44.1,19.3,29.98,North,0,0.0,0.0,37,0.00,,,0.00,WUHU216HW,2013-02-18 16:22:00,
2013-02-18 09:25:00,44.5,19.6,29.99,North,0,0.0,0.0,37,0.00,,,0.00,WUHU216HW,2013-02-18 16:25:00,
2013-02-18 09:26:00,44.5,19.6,29.99,North,0,0.0,0.0,37,0.00,,,0.00,WUHU216HW,2013-02-18 16:26:00,
2013-02-18 09:28:00,44.6,19.8,29.99,North,0,0.0,0.0,37,0.00,,,0.00,WUHU216HW,2013-02-18 16:28:00,
2013-02-18 09:30:00,44.8,20.0,29.99,North,0,0.0,0.0,37,0.00,,,0.00,WUHU216HW,2013-02-18 16:30:00,
2013-02-18 09:31:00,45.0,20.1,29.99,North,0,0.0,0.0,37,0.00,,,0.00,WUHU216HW,2013-02-18 16:31:00,
2013-02-18 09:33:00,45.2,20.3,29.99,North,0,0.0,0.0,37,0.00,,,0.00,WUHU216HW,2013-02-18 16:33:00,
2013-02-18 09:35:00,45.7,20.1,29.99,North,0,0.0,0.0,36,0.00,,,0.00,WUHU216HW,2013-02-18 16:35:00,
2013-02-18 09:37:00,45.9,20.3,29.99,North,0,0.0,0.0,36,0.00,,,0.00,WUHU216HW,2013-02-18 16:37:00,
2013-02-18 09:40:00,46.3,19.9,29.99,North,0,0.0,0.0,35,0.00,,,0.00,WUHU216HW,2013-02-18 16:40:00,
2013-02-18 09:42:00,46.4,20.1,29.99,North,0,0.0,0.0,35,0.00,,,0.00,WUHU216HW,2013-02-18 16:42:00,
2013-02-18 09:45:00,46.6,20.3,29.99,North,0,0.0,0.0,35,0.00,,,0.00,WUHU216HW,2013-02-18 16:45:00,
2013-02-18 09:46:00,46.8,20.4,29.99,North,0,0.0,0.0,35,0.00,,,0.00,WUHU216HW,2013-02-18 16:46:00,
2013-02-18 09:47:00,47.0,20.5,29.99,North,0,0.0,0.0,35,0.00,,,0.00,WUHU216HW,2013-02-18 16:47:00,
2013-02-18 09:50:00,47.2,20.1,29.99,North,0,0.0,0.0,34,0.00,,,0.00,WUHU216HW,2013-02-18 16:50:00,
2013-02-18 09:51:00,47.2,20.1,29.99,North,0,0.0,0.0,34,0.00,,,0.00,WUHU216HW,2013-02-18 16:51:00,
2013-02-18 09:52:00,47.5,20.3,29.99,North,0,0.0,0.0,34,0.00,,,0.00,WUHU216HW,2013-02-18 16:52:00,
2013-02-18 09:56:00,47.5,20.3,29.98,North,0,0.0,0.0,34,0.00,,,0.00,WUHU216HW,2013-02-18 16:56:00,
2013-02-18 09:58:00,47.7,20.5,29.98,North,0,0.0,0.0,34,0.00,,,0.00,WUHU216HW,2013-02-18 16:58:00,
2013-02-18 10:01:00,47.9,20.7,29.98,North,0,0.0,0.0,34,0.00,,,0.00,WUHU216HW,2013-02-18 17:01:00,
2013-02-18 10:02:00,47.9,20.7,29.98,North,0,0.0,0.0,34,0.00,,,0.00,WUHU216HW,2013-02-18 17:02:00,
2013-02-18 10:03:00,48.2,20.3,29.98,North,0,0.0,0.0,33,0.00,,,0.00,WUHU216HW,2013-02-18 17:03:00,
2013-02-18 10:07:00,48.6,20.7,29.98,North,0,0.0,0.0,33,0.00,,,0.00,WUHU216HW,2013-02-18 17:07:00,
2013-02-18 10:09:00,48.8,20.8,29.98,North,0,0.0,0.0,33,0.00,,,0.00,WUHU216HW,2013-02-18 17:09:00,
2013-02-18 10:12:00,49.3,21.2,29.98,North,0,0.0,0.0,33,0.00,,,0.00,WUHU216HW,2013-02-18 17:12:00,
2013-02-18 10:14:00,49.7,21.5,29.98,North,0,0.0,0.0,33,0.00,,,0.00,WUHU216HW,2013-02-18 17:14:00,
2013-02-18 10:17:00,50.2,22.1,29.98,North,0,0.0,0.0,33,0.00,,,0.00,WUHU216HW,2013-02-18 17:17:00,
2013-02-18 10:19:00,50.2,21.3,29.98,North,0,0.0,0.0,32,0.00,,,0.00,WUHU216HW,2013-02-18 17:19:00,
2013-02-18 10:20:00,50.4,21.5,29.98,North,0,0.0,0.0,32,0.00,,,0.00,WUHU216HW,2013-02-18 17:20:00,
2013-02-18 10:22:00,50.8,21.8,29.98,North,0,0.0,0.0,32,0.00,,,0.00,WUHU216HW,2013-02-18 17:22:00,
2013-02-18 10:24:00,50.8,21.8,29.98,North,0,0.0,0.0,32,0.00,,,0.00,WUHU216HW,2013-02-18 17:24:00,
2013-02-18 10:26:00,50.9,22.0,29.98,North,0,0.0,0.0,32,0.00,,,0.00,WUHU216HW,2013-02-18 17:26:00,
2013-02-18 10:28:00,51.1,21.4,29.98,North,0,0.0,0.0,31,0.00,,,0.00,WUHU216HW,2013-02-18 17:28:00,
2013-02-18 10:29:00,51.1,21.4,29.98,North,0,0.0,0.0,31,0.00,,,0.00,WUHU216HW,2013-02-18 17:29:00,
2013-02-18 10:31:00,51.3,21.6,29.98,North,0,0.0,0.0,31,0.00,,,0.00,WUHU216HW,2013-02-18 17:31:00,
2013-02-18 10:33:00,51.5,21.8,29.98,North,0,0.0,0.0,31,0.00,,,0.00,WUHU216HW,2013-02-18 17:33:00,
2013-02-18 10:35:00,51.5,21.8,29.98,North,0,0.0,0.0,31,0.00,,,0.00,WUHU216HW,2013-02-18 17:35:00,
2013-02-18 10:36:00,51.5,21.8,29.98,North,0,0.0,0.0,31,0.00,,,0.00,WUHU216HW,2013-02-18 17:36:00,
2013-02-18 10:39:00,51.8,21.4,29.97,North,0,0.0,0.0,30,0.00,,,0.00,WUHU216HW,2013-02-18 17:39:00,
2013-02-18 10:41:00,52.2,21.8,29.98,North,0,0.0,0.0,30,0.00,,,0.00,WUHU216HW,2013-02-18 17:41:00,
2013-02-18 10:45:00,52.6,21.2,29.97,North,0,0.0,0.0,29,0.00,,,0.00,WUHU216HW,2013-02-18 17:45:00,
2013-02-18 10:46:00,52.6,21.2,29.98,North,0,0.0,0.0,29,0.00,,,0.00,WUHU216HW,2013-02-18 17:46:00,
2013-02-18 10:47:00,52.6,21.2,29.98,North,0,0.0,0.0,29,0.00,,,0.00,WUHU216HW,2013-02-18 17:47:00,
2013-02-18 10:50:00,52.7,21.3,29.97,North,0,0.0,0.0,29,0.00,,,0.00,WUHU216HW,2013-02-18 17:50:00,
2013-02-18 10:52:00,52.7,21.3,29.97,North,0,0.0,0.0,29,0.00,,,0.00,WUHU216HW,2013-02-18 17:52:00,
2013-02-18 10:54:00,52.9,21.4,29.97,North,0,0.0,0.0,29,0.00,,,0.00,WUHU216HW,2013-02-18 17:54:00,
2013-02-18 10:55:00,52.9,21.4,29.97,North,0,0.0,0.0,29,0.00,,,0.00,WUHU216HW,2013-02-18 17:55:00,
2013-02-18 10:57:00,53.1,20.7,29.97,North,0,0.0,0.0,28,0.00,,,0.00,WUHU216HW,2013-02-18 17:57:00,
2013-02-18 10:59:00,53.3,20.8,29.97,North,0,0.0,0.0,28,0.00,,,0.00,WUHU216HW,2013-02-18 17:59:00,
2013-02-18 11:01:00,53.5,21.0,29.97,North,0,0.0,0.0,28,0.00,,,0.00,WUHU216HW,2013-02-18 18:01:00,
2013-02-18 11:02:00,53.5,21.0,29.97,North,0,0.0,0.0,28,0.00,,,0.00,WUHU216HW,2013-02-18 18:02:00,
2013-02-18 11:04:00,53.6,21.2,29.97,North,0,0.0,0.0,28,0.00,,,0.00,WUHU216HW,2013-02-18 18:04:00,
2013-02-18 11:06:00,53.8,21.2,29.97,North,0,0.0,0.0,28,0.00,,,0.00,WUHU216HW,2013-02-18 18:06:00,
2013-02-18 11:07:00,54.0,21.4,29.97,North,0,0.0,0.0,28,0.00,,,0.00,WUHU216HW,2013-02-18 18:07:00,
2013-02-18 11:10:00,54.4,21.7,29.97,North,0,0.0,0.0,28,0.00,,,0.00,WUHU216HW,2013-02-18 18:10:00,
2013-02-18 11:12:00,54.5,21.0,29.97,North,0,0.0,0.0,27,0.00,,,0.00,WUHU216HW,2013-02-18 18:12:00,
2013-02-18 11:13:00,54.7,21.1,29.97,North,0,0.0,0.0,27,0.00,,,0.00,WUHU216HW,2013-02-18 18:13:00,
2013-02-18 11:15:00,54.9,21.3,29.97,North,0,0.0,0.0,27,0.00,,,0.00,WUHU216HW,2013-02-18 18:15:00,
2013-02-18 11:18:00,55.1,21.3,29.97,North,0,0.0,0.0,27,0.00,,,0.00,WUHU216HW,2013-02-18 18:18:00,
2013-02-18 11:21:00,55.3,21.5,29.97,North,0,0.0,0.0,27,0.00,,,0.00,WUHU216HW,2013-02-18 18:21:00,
2013-02-18 11:23:00,55.4,21.7,29.97,North,0,0.0,0.0,27,0.00,,,0.00,WUHU216HW,2013-02-18 18:23:00,
2013-02-18 11:24:00,55.6,21.9,29.97,North,0,0.0,0.0,27,0.00,,,0.00,WUHU216HW,2013-02-18 18:24:00,
2013-02-18 11:26:00,55.8,20.1,29.97,North,0,0.0,0.0,25,0.00,,,0.00,WUHU216HW,2013-02-18 18:26:00,
2013-02-18 11:29:00,55.8,20.1,29.97,North,0,0.0,0.0,25,0.00,,,0.00,WUHU216HW,2013-02-18 18:29:00,
2013-02-18 11:31:00,56.0,20.3,29.97,North,0,0.0,0.0,25,0.00,,,0.00,WUHU216HW,2013-02-18 18:31:00,
2013-02-18 11:34:00,56.2,20.4,29.97,North,0,0.0,0.0,25,0.00,,,0.00,WUHU216HW,2013-02-18 18:34:00,
2013-02-18 11:36:00,56.2,19.4,29.97,North,0,0.0,0.0,24,0.00,,,0.00,WUHU216HW,2013-02-18 18:36:00,
2013-02-18 11:39:00,56.2,19.4,29.97,North,0,0.0,0.0,24,0.00,,,0.00,WUHU216HW,2013-02-18 18:39:00,
2013-02-18 11:40:00,56.3,19.6,29.97,North,0,0.0,0.0,24,0.00,,,0.00,WUHU216HW,2013-02-18 18:40:00,
2013-02-18 11:41:00,56.3,19.6,29.97,North,0,0.0,0.0,24,0.00,,,0.00,WUHU216HW,2013-02-18 18:41:00,
2013-02-18 11:44:00,56.3,19.6,29.97,North,0,0.0,0.0,24,0.00,,,0.00,WUHU216HW,2013-02-18 18:44:00,
2013-02-18 11:46:00,56.5,19.8,29.97,North,0,0.0,0.0,24,0.00,,,0.00,WUHU216HW,2013-02-18 18:46:00,
2013-02-18 11:47:00,56.5,19.8,29.97,North,0,0.0,0.0,24,0.00,,,0.00,WUHU216HW,2013-02-18 18:47:00,
2013-02-18 11:50:00,56.7,19.0,29.96,North,0,0.0,0.0,23,0.00,,,0.00,WUHU216HW,2013-02-18 18:50:00,
2013-02-18 11:52:00,56.9,19.1,29.96,North,0,0.0,0.0,23,0.00,,,0.00,WUHU216HW,2013-02-18 18:52:00,
2013-02-18 11:56:00,57.1,18.4,29.96,North,0,0.0,0.0,22,0.00,,,0.00,WUHU216HW,2013-02-18 18:56:00,
2013-02-18 11:57:00,57.2,19.5,29.96,North,0,0.0,0.0,23,0.00,,,0.00,WUHU216HW,2013-02-18 18:57:00,
2013-02-18 11:58:00,57.2,19.5,29.96,North,0,0.0,0.0,23,0.00,,,0.00,WUHU216HW,2013-02-18 18:58:00,
2013-02-18 12:01:00,57.4,19.5,29.96,North,0,0.0,0.0,23,0.00,,,0.00,WUHU216HW,2013-02-18 19:01:00,
2013-02-18 12:03:00,57.6,19.7,29.96,North,0,0.0,0.0,23,0.00,,,0.00,WUHU216HW,2013-02-18 19:03:00,
2013-02-18 12:07:00,57.6,17.8,29.96,North,0,0.0,0.0,21,0.00,,,0.00,WUHU216HW,2013-02-18 19:07:00,
2013-02-18 12:08:00,57.6,17.8,29.96,North,0,0.0,0.0,21,0.00,,,0.00,WUHU216HW,2013-02-18 19:08:00,
2013-02-18 12:10:00,57.6,18.7,29.96,North,0,0.0,0.0,22,0.00,,,0.00,WUHU216HW,2013-02-18 19:10:00,
2013-02-18 12:12:00,58.0,19.1,29.96,North,0,0.0,0.0,22,0.00,,,0.00,WUHU216HW,2013-02-18 19:12:00,
2013-02-18 12:13:00,58.0,19.1,29.96,North,0,0.0,0.0,22,0.00,,,0.00,WUHU216HW,2013-02-18 19:13:00,
2013-02-18 12:15:00,58.0,19.1,29.96,North,0,0.0,0.0,22,0.00,,,0.00,WUHU216HW,2013-02-18 19:15:00,
2013-02-18 12:18:00,58.1,19.2,29.95,North,0,0.0,0.0,22,0.00,,,0.00,WUHU216HW,2013-02-18 19:18:00,
2013-02-18 12:20:00,58.1,19.2,29.95,North,0,0.0,0.0,22,0.00,,,0.00,WUHU216HW,2013-02-18 19:20:00,
2013-02-18 12:23:00,58.3,18.4,29.95,North,0,0.0,0.0,21,0.00,,,0.00,WUHU216HW,2013-02-18 19:23:00,
2013-02-18 12:24:00,58.3,18.4,29.95,North,0,0.0,0.0,21,0.00,,,0.00,WUHU216HW,2013-02-18 19:24:00,
2013-02-18 12:26:00,58.3,18.4,29.95,North,0,0.0,0.0,21,0.00,,,0.00,WUHU216HW,2013-02-18 19:26:00,
2013-02-18 12:28:00,58.5,18.6,29.95,North,0,0.0,0.0,21,0.00,,,0.00,WUHU216HW,2013-02-18 19:28:00,
2013-02-18 12:29:00,58.5,18.6,29.94,North,0,0.0,0.0,21,0.00,,,0.00,WUHU216HW,2013-02-18 19:29:00,
2013-02-18 12:31:00,58.7,18.7,29.94,North,0,0.0,0.0,21,0.00,,,0.00,WUHU216HW,2013-02-18 19:31:00,
2013-02-18 12:34:00,58.7,17.7,29.94,North,0,0.0,0.0,20,0.00,,,0.00,WUHU216HW,2013-02-18 19:34:00,
2013-02-18 12:35:00,58.7,17.7,29.95,North,0,0.0,0.0,20,0.00,,,0.00,WUHU216HW,2013-02-18 19:35:00,
2013-02-18 12:36:00,58.9,17.8,29.94,North,0,0.0,0.0,20,0.00,,,0.00,WUHU216HW,2013-02-18 19:36:00,
2013-02-18 12:39:00,58.9,17.8,29.94,North,0,0.0,0.0,20,0.00,,,0.00,WUHU216HW,2013-02-18 19:39:00,
2013-02-18 12:41:00,58.9,17.8,29.94,North,0,0.0,0.0,20,0.00,,,0.00,WUHU216HW,2013-02-18 19:41:00,
2013-02-18 12:42:00,58.9,17.8,29.94,North,0,0.0,0.0,20,0.00,,,0.00,WUHU216HW,2013-02-18 19:42:00,
2013-02-18 12:45:00,59.2,19.2,29.94,North,0,0.0,0.0,21,0.00,,,0.00,WUHU216HW,2013-02-18 19:45:00,
2013-02-18 12:46:00,59.2,19.2,29.94,North,0,0.0,0.0,21,0.00,,,0.00,WUHU216HW,2013-02-18 19:46:00,
2013-02-18 12:47:00,59.2,18.2,29.94,North,0,0.0,0.0,20,0.00,,,0.00,WUHU216HW,2013-02-18 19:47:00,
2013-02-18 12:50:00,59.2,16.7,29.93,North,0,0.0,0.0,19,0.00,,,0.00,WUHU216HW,2013-02-18 19:50:00,
2013-02-18 12:51:00,59.2,19.2,29.93,North,0,0.0,0.0,21,0.00,,,0.00,WUHU216HW,2013-02-18 19:51:00,
2013-02-18 12:52:00,59.2,16.7,29.93,North,0,0.0,0.0,19,0.00,,,0.00,WUHU216HW,2013-02-18 19:52:00,
2013-02-18 12:56:00,59.2,16.7,29.93,North,0,0.0,0.0,19,0.00,,,0.00,WUHU216HW,2013-02-18 19:56:00,
2013-02-18 12:57:00,59.4,16.7,29.93,North,0,0.0,0.0,19,0.00,,,0.00,WUHU216HW,2013-02-18 19:57:00,
2013-02-18 13:01:00,59.6,16.9,29.93,North,0,0.0,0.0,19,0.00,,,0.00,WUHU216HW,2013-02-18 20:01:00,
2013-02-18 13:02:00,59.6,16.9,29.93,North,0,0.0,0.0,19,0.00,,,0.00,WUHU216HW,2013-02-18 20:02:00,
2013-02-18 13:06:00,59.8,17.1,29.93,North,0,0.0,0.0,19,0.00,,,0.00,WUHU216HW,2013-02-18 20:06:00,
2013-02-18 13:07:00,59.9,17.3,29.93,North,0,0.0,0.0,19,0.00,,,0.00,WUHU216HW,2013-02-18 20:07:00,
2013-02-18 13:08:00,59.9,18.8,29.93,North,0,0.0,0.0,20,0.00,,,0.00,WUHU216HW,2013-02-18 20:08:00,
2013-02-18 13:11:00,60.1,17.4,29.92,North,0,0.0,0.0,19,0.00,,,0.00,WUHU216HW,2013-02-18 20:11:00,
2013-02-18 13:13:00,60.3,17.6,29.92,North,0,0.0,0.0,19,0.00,,,0.00,WUHU216HW,2013-02-18 20:13:00,
2013-02-18 13:16:00,60.5,17.7,29.92,North,0,0.0,0.0,19,0.00,,,0.00,WUHU216HW,2013-02-18 20:16:00,
2013-02-18 13:18:00,60.5,17.7,29.92,North,0,0.0,0.0,19,0.00,,,0.00,WUHU216HW,2013-02-18 20:18:00,
2013-02-18 13:19:00,60.5,17.7,29.92,North,0,0.0,0.0,19,0.00,,,0.00,WUHU216HW,2013-02-18 20:19:00,
2013-02-18 13:22:00,60.5,17.7,29.92,North,0,0.0,0.0,19,0.00,,,0.00,WUHU216HW,2013-02-18 20:22:00,
2013-02-18 13:24:00,60.7,17.9,29.91,North,0,0.0,0.0,19,0.00,,,0.00,WUHU216HW,2013-02-18 20:24:00,
2013-02-18 13:25:00,60.7,17.9,29.91,North,0,0.0,0.0,19,0.00,,,0.00,WUHU216HW,2013-02-18 20:25:00,
2013-02-18 13:27:00,60.7,17.9,29.91,North,0,0.0,0.0,19,0.00,,,0.00,WUHU216HW,2013-02-18 20:27:00,
2013-02-18 13:29:00,60.8,18.1,29.91,North,0,0.0,0.0,19,0.00,,,0.00,WUHU216HW,2013-02-18 20:29:00,
2013-02-18 13:30:00,60.8,19.6,29.91,North,0,0.0,0.0,20,0.00,,,0.00,WUHU216HW,2013-02-18 20:30:00,
2013-02-18 13:32:00,60.8,18.1,29.91,North,0,0.0,0.0,19,0.00,,,0.00,WUHU216HW,2013-02-18 20:32:00,
2013-02-18 13:34:00,61.0,18.2,29.91,North,0,0.0,0.0,19,0.00,,,0.00,WUHU216HW,2013-02-18 20:34:00,
2013-02-18 13:35:00,61.0,18.2,29.91,North,0,0.0,0.0,19,0.00,,,0.00,WUHU216HW,2013-02-18 20:35:00,
2013-02-18 13:38:00,61.0,18.2,29.91,North,0,0.0,0.0,19,0.00,,,0.00,WUHU216HW,2013-02-18 20:38:00,
2013-02-18 13:39:00,61.0,18.2,29.91,North,0,0.0,0.0,19,0.00,,,0.00,WUHU216HW,2013-02-18 20:39:00,
2013-02-18 13:40:00,61.0,18.2,29.91,North,0,0.0,0.0,19,0.00,,,0.00,WUHU216HW,2013-02-18 20:40:00,
2013-02-18 13:44:00,61.2,18.4,29.90,North,0,0.0,0.0,19,0.00,,,0.00,WUHU216HW,2013-02-18 20:44:00,
2013-02-18 13:45:00,61.4,18.5,29.90,North,0,0.0,0.0,19,0.00,,,0.00,WUHU216HW,2013-02-18 20:45:00,
2013-02-18 13:49:00,61.4,18.5,29.90,North,0,0.0,0.0,19,0.00,,,0.00,WUHU216HW,2013-02-18 20:49:00,
2013-02-18 13:50:00,61.4,18.5,29.90,North,0,0.0,0.0,19,0.00,,,0.00,WUHU216HW,2013-02-18 20:50:00,
2013-02-18 13:52:00,61.4,18.5,29.90,North,0,0.0,0.0,19,0.00,,,0.00,WUHU216HW,2013-02-18 20:52:00,
2013-02-18 13:54:00,61.4,18.5,29.90,North,0,0.0,0.0,19,0.00,,,0.00,WUHU216HW,2013-02-18 20:54:00,
2013-02-18 13:55:00,61.4,18.5,29.90,North,0,0.0,0.0,19,0.00,,,0.00,WUHU216HW,2013-02-18 20:55:00,
2013-02-18 13:57:00,61.4,18.5,29.90,North,0,0.0,0.0,19,0.00,,,0.00,WUHU216HW,2013-02-18 20:57:00,
2013-02-18 14:00:00,61.4,18.5,29.89,North,0,0.0,0.0,19,0.00,,,0.00,WUHU216HW,2013-02-18 21:00:00,
2013-02-18 14:02:00,61.6,18.6,29.89,North,0,0.0,0.0,19,0.00,,,0.00,WUHU216HW,2013-02-18 21:02:00,
2013-02-18 14:05:00,61.7,18.8,29.89,North,0,0.0,0.0,19,0.00,,,0.00,WUHU216HW,2013-02-18 21:05:00,
2013-02-18 14:06:00,61.9,18.9,29.89,North,0,0.0,0.0,19,0.00,,,0.00,WUHU216HW,2013-02-18 21:06:00,
2013-02-18 14:07:00,61.9,18.9,29.89,North,0,0.0,0.0,19,0.00,,,0.00,WUHU216HW,2013-02-18 21:07:00,
2013-02-18 14:11:00,61.9,17.4,29.89,North,0,0.0,0.0,18,0.00,,,0.00,WUHU216HW,2013-02-18 21:11:00,
2013-02-18 14:13:00,61.9,18.9,29.89,North,0,0.0,0.0,19,0.00,,,0.00,WUHU216HW,2013-02-18 21:13:00,
2013-02-18 14:16:00,61.9,17.4,29.89,North,0,0.0,0.0,18,0.00,,,0.00,WUHU216HW,2013-02-18 21:16:00,
2013-02-18 14:19:00,61.9,17.4,29.89,North,0,0.0,0.0,18,0.00,,,0.00,WUHU216HW,2013-02-18 21:19:00,
2013-02-18 14:21:00,61.9,17.4,29.88,North,0,0.0,0.0,18,0.00,,,0.00,WUHU216HW,2013-02-18 21:21:00,
2013-02-18 14:22:00,61.9,17.4,29.88,North,0,0.0,0.0,18,0.00,,,0.00,WUHU216HW,2013-02-18 21:22:00,
2013-02-18 14:24:00,61.9,17.4,29.88,North,0,0.0,0.0,18,0.00,,,0.00,WUHU216HW,2013-02-18 21:24:00,
2013-02-18 14:27:00,61.9,17.4,29.89,North,0,0.0,0.0,18,0.00,,,0.00,WUHU216HW,2013-02-18 21:27:00,
2013-02-18 14:29:00,61.9,17.4,29.88,North,0,0.0,0.0,18,0.00,,,0.00,WUHU216HW,2013-02-18 21:29:00,
2013-02-18 14:32:00,61.9,17.4,29.88,North,0,0.0,0.0,18,0.00,,,0.00,WUHU216HW,2013-02-18 21:32:00,
2013-02-18 14:35:00,62.1,17.5,29.88,North,0,0.0,0.0,18,0.00,,,0.00,WUHU216HW,2013-02-18 21:35:00,
2013-02-18 14:37:00,62.1,17.5,29.88,North,0,0.0,0.0,18,0.00,,,0.00,WUHU216HW,2013-02-18 21:37:00,
2013-02-18 14:40:00,61.9,17.4,29.88,North,0,0.0,0.0,18,0.00,,,0.00,WUHU216HW,2013-02-18 21:40:00,
2013-02-18 14:43:00,61.7,17.2,29.88,North,0,0.0,0.0,18,0.00,,,0.00,WUHU216HW,2013-02-18 21:43:00,
2013-02-18 14:44:00,61.7,17.2,29.88,North,0,0.0,0.0,18,0.00,,,0.00,WUHU216HW,2013-02-18 21:44:00,
2013-02-18 14:45:00,61.9,17.4,29.88,North,0,0.0,0.0,18,0.00,,,0.00,WUHU216HW,2013-02-18 21:45:00,
2013-02-18 14:48:00,61.9,17.4,29.88,North,0,0.0,0.0,18,0.00,,,0.00,WUHU216HW,2013-02-18 21:48:00,
2013-02-18 14:49:00,61.9,17.4,29.88,North,0,0.0,0.0,18,0.00,,,0.00,WUHU216HW,2013-02-18 21:49:00,
2013-02-18 14:51:00,61.9,17.4,29.88,North,0,0.0,0.0,18,0.00,,,0.00,WUHU216HW,2013-02-18 21:51:00,
2013-02-18 14:53:00,62.1,17.5,29.88,North,0,0.0,0.0,18,0.00,,,0.00,WUHU216HW,2013-02-18 21:53:00,
2013-02-18 14:54:00,62.1,17.5,29.88,North,0,0.0,0.0,18,0.00,,,0.00,WUHU216HW,2013-02-18 21:54:00,
2013-02-18 14:56:00,62.1,17.5,29.88,North,0,0.0,0.0,18,0.00,,,0.00,WUHU216HW,2013-02-18 21:56:00,
2013-02-18 14:59:00,62.3,17.6,29.88,North,0,0.0,0.0,18,0.00,,,0.00,WUHU216HW,2013-02-18 21:59:00,
2013-02-18 15:00:00,62.3,17.6,29.88,North,0,0.0,0.0,18,0.00,,,0.00,WUHU216HW,2013-02-18 22:00:00,
2013-02-18 15:01:00,62.3,17.6,29.88,North,0,0.0,0.0,18,0.00,,,0.00,WUHU216HW,2013-02-18 22:01:00,
2013-02-18 15:05:00,62.3,17.6,29.88,North,0,0.0,0.0,18,0.00,,,0.00,WUHU216HW,2013-02-18 22:05:00,
2013-02-18 15:06:00,62.5,17.8,29.88,North,0,0.0,0.0,18,0.00,,,0.00,WUHU216HW,2013-02-18 22:06:00,
2013-02-18 15:10:00,62.5,17.8,29.87,North,0,0.0,0.0,18,0.00,,,0.00,WUHU216HW,2013-02-18 22:10:00,
2013-02-18 15:11:00,62.5,17.8,29.87,North,0,0.0,0.0,18,0.00,,,0.00,WUHU216HW,2013-02-18 22:11:00,
2013-02-18 15:13:00,62.5,17.8,29.87,North,0,0.0,0.0,18,0.00,,,0.00,WUHU216HW,2013-02-18 22:13:00,
2013-02-18 15:15:00,62.6,17.9,29.87,North,0,0.0,0.0,18,0.00,,,0.00,WUHU216HW,2013-02-18 22:15:00,
2013-02-18 15:16:00,62.6,17.9,29.87,North,0,0.0,0.0,18,0.00,,,0.00,WUHU216HW,2013-02-18 22:16:00,
2013-02-18 15:18:00,62.6,17.9,29.87,North,0,0.0,0.0,18,0.00,,,0.00,WUHU216HW,2013-02-18 22:18:00,
2013-02-18 15:20:00,62.6,16.4,29.87,North,0,0.0,0.0,17,0.00,,,0.00,WUHU216HW,2013-02-18 22:20:00,
2013-02-18 15:21:00,62.6,17.9,29.87,North,0,0.0,0.0,18,0.00,,,0.00,WUHU216HW,2013-02-18 22:21:00,
2013-02-18 15:24:00,62.6,17.9,29.87,North,0,0.0,0.0,18,0.00,,,0.00,WUHU216HW,2013-02-18 22:24:00,
2013-02-18 15:26:00,62.6,17.9,29.87,North,0,0.0,0.0,18,0.00,,,0.00,WUHU216HW,2013-02-18 22:26:00,
2013-02-18 15:29:00,62.6,17.9,29.87,North,0,0.0,0.0,18,0.00,,,0.00,WUHU216HW,2013-02-18 22:29:00,
2013-02-18 15:31:00,62.8,18.1,29.87,North,0,0.0,0.0,18,0.00,,,0.00,WUHU216HW,2013-02-18 22:31:00,
2013-02-18 15:33:00,62.8,18.1,29.87,North,0,0.0,0.0,18,0.00,,,0.00,WUHU216HW,2013-02-18 22:33:00,
2013-02-18 15:34:00,62.8,18.1,29.87,North,0,0.0,0.0,18,0.00,,,0.00,WUHU216HW,2013-02-18 22:34:00,
2013-02-18 15:38:00,62.8,18.1,29.87,North,0,0.0,0.0,18,0.00,,,0.00,WUHU216HW,2013-02-18 22:38:00,
2013-02-18 15:39:00,62.8,18.1,29.87,North,0,0.0,0.0,18,0.00,,,0.00,WUHU216HW,2013-02-18 22:39:00,
2013-02-18 15:43:00,63.0,18.2,29.87,North,0,0.0,0.0,18,0.00,,,0.00,WUHU216HW,2013-02-18 22:43:00,
2013-02-18 15:44:00,62.8,18.1,29.87,North,0,0.0,0.0,18,0.00,,,0.00,WUHU216HW,2013-02-18 22:44:00,
2013-02-18 15:48:00,63.0,18.2,29.87,North,0,0.0,0.0,18,0.00,,,0.00,WUHU216HW,2013-02-18 22:48:00,
2013-02-18 15:49:00,62.8,18.1,29.87,North,0,0.0,0.0,18,0.00,,,0.00,WUHU216HW,2013-02-18 22:49:00,
2013-02-18 15:51:00,62.8,18.1,29.86,North,0,0.0,0.0,18,0.00,,,0.00,WUHU216HW,2013-02-18 22:51:00,
2013-02-18 15:53:00,62.8,18.1,29.86,North,0,0.0,0.0,18,0.00,,,0.00,WUHU216HW,2013-02-18 22:53:00,
2013-02-18 15:54:00,62.8,18.1,29.86,North,0,0.0,0.0,18,0.00,,,0.00,WUHU216HW,2013-02-18 22:54:00,
2013-02-18 15:56:00,62.8,18.1,29.87,North,0,0.0,0.0,18,0.00,,,0.00,WUHU216HW,2013-02-18 22:56:00,
2013-02-18 15:59:00,63.0,18.2,29.86,North,0,0.0,0.0,18,0.00,,,0.00,WUHU216HW,2013-02-18 22:59:00,
2013-02-18 16:00:00,63.0,16.7,29.86,North,0,0.0,0.0,17,0.00,,,0.00,WUHU216HW,2013-02-18 23:00:00,
2013-02-18 16:01:00,63.0,16.7,29.86,North,0,0.0,0.0,17,0.00,,,0.00,WUHU216HW,2013-02-18 23:01:00,
2013-02-18 16:04:00,63.0,16.7,29.86,North,0,0.0,0.0,17,0.00,,,0.00,WUHU216HW,2013-02-18 23:04:00,
2013-02-18 16:05:00,63.0,16.7,29.86,North,0,0.0,0.0,17,0.00,,,0.00,WUHU216HW,2013-02-18 23:05:00,
2013-02-18 16:07:00,63.0,16.7,29.86,North,0,0.0,0.0,17,0.00,,,0.00,WUHU216HW,2013-02-18 23:07:00,
2013-02-18 16:09:00,63.0,18.2,29.86,North,0,0.0,0.0,18,0.00,,,0.00,WUHU216HW,2013-02-18 23:09:00,
2013-02-18 16:11:00,63.0,18.2,29.86,North,0,0.0,0.0,18,0.00,,,0.00,WUHU216HW,2013-02-18 23:11:00,
2013-02-18 16:13:00,63.0,18.2,29.86,North,0,0.0,0.0,18,0.00,,,0.00,WUHU216HW,2013-02-18 23:13:00,
2013-02-18 16:14:00,63.0,18.2,29.86,North,0,0.0,0.0,18,0.00,,,0.00,WUHU216HW,2013-02-18 23:14:00,
2013-02-18 16:16:00,63.0,18.2,29.86,North,0,0.0,0.0,18,0.00,,,0.00,WUHU216HW,2013-02-18 23:16:00,
2013-02-18 16:18:00,63.0,18.2,29.86,North,0,0.0,0.0,18,0.00,,,0.00,WUHU216HW,2013-02-18 23:18:00,
2013-02-18 16:20:00,63.0,18.2,29.86,North,0,0.0,0.0,18,0.00,,,0.00,WUHU216HW,2013-02-18 23:20:00,
2013-02-18 16:21:00,63.0,16.7,29.86,North,0,0.0,0.0,17,0.00,,,0.00,WUHU216HW,2013-02-18 23:21:00,
2013-02-18 16:23:00,63.0,16.7,29.86,North,0,0.0,0.0,17,0.00,,,0.00,WUHU216HW,2013-02-18 23:23:00,
2013-02-18 16:25:00,63.0,16.7,29.86,North,0,0.0,0.0,17,0.00,,,0.00,WUHU216HW,2013-02-18 23:25:00,
2013-02-18 16:27:00,63.0,16.7,29.86,North,0,0.0,0.0,17,0.00,,,0.00,WUHU216HW,2013-02-18 23:27:00,
2013-02-18 16:28:00,63.0,16.7,29.86,North,0,0.0,0.0,17,0.00,,,0.00,WUHU216HW,2013-02-18 23:28:00,
2013-02-18 16:31:00,62.8,16.5,29.86,North,0,0.0,0.0,17,0.00,,,0.00,WUHU216HW,2013-02-18 23:31:00,
2013-02-18 16:32:00,62.8,16.5,29.86,North,0,0.0,0.0,17,0.00,,,0.00,WUHU216HW,2013-02-18 23:32:00,
2013-02-18 16:33:00,62.8,16.5,29.86,North,0,0.0,0.0,17,0.00,,,0.00,WUHU216HW,2013-02-18 23:33:00,
2013-02-18 16:36:00,62.8,16.5,29.86,North,0,0.0,0.0,17,0.00,,,0.00,WUHU216HW,2013-02-18 23:36:00,
2013-02-18 16:37:00,62.8,16.5,29.86,North,0,0.0,0.0,17,0.00,,,0.00,WUHU216HW,2013-02-18 23:37:00,
2013-02-18 16:38:00,62.8,16.5,29.86,North,0,0.0,0.0,17,0.00,,,0.00,WUHU216HW,2013-02-18 23:38:00,
2013-02-18 16:41:00,62.6,16.4,29.86,North,0,0.0,0.0,17,0.00,,,0.00,WUHU216HW,2013-02-18 23:41:00,
2013-02-18 16:43:00,62.8,16.5,29.86,North,0,0.0,0.0,17,0.00,,,0.00,WUHU216HW,2013-02-18 23:43:00,
2013-02-18 16:47:00,62.8,16.5,29.86,North,0,0.0,0.0,17,0.00,,,0.00,WUHU216HW,2013-02-18 23:47:00,
2013-02-18 16:48:00,62.8,16.5,29.86,North,0,0.0,0.0,17,0.00,,,0.00,WUHU216HW,2013-02-18 23:48:00,
2013-02-18 16:49:00,62.8,16.5,29.86,North,0,0.0,0.0,17,0.00,,,0.00,WUHU216HW,2013-02-18 23:49:00,
2013-02-18 16:52:00,62.8,18.1,29.86,North,0,0.0,0.0,18,0.00,,,0.00,WUHU216HW,2013-02-18 23:52:00,
2013-02-18 16:54:00,62.6,17.9,29.86,North,0,0.0,0.0,18,0.00,,,0.00,WUHU216HW,2013-02-18 23:54:00,
2013-02-18 16:55:00,62.8,18.1,29.86,North,0,0.0,0.0,18,0.00,,,0.00,WUHU216HW,2013-02-18 23:55:00,
2013-02-18 16:57:00,62.8,18.1,29.86,North,0,0.0,0.0,18,0.00,,,0.00,WUHU216HW,2013-02-18 23:57:00,
2013-02-18 16:59:00,62.6,17.9,29.86,North,0,0.0,0.0,18,0.00,,,0.00,WUHU216HW,2013-02-18 23:59:00,
2013-02-18 17:00:00,62.6,17.9,29.86,North,0,0.0,0.0,18,0.00,,,0.00,WUHU216HW,2013-02-19 00:00:00,
2013-02-18 17:03:00,62.6,17.9,29.86,North,0,0.0,0.0,18,0.00,,,0.00,WUHU216HW,2013-02-19 00:03:00,
2013-02-18 17:05:00,62.5,16.2,29.86,North,0,0.0,0.0,17,0.00,,,0.00,WUHU216HW,2013-02-19 00:05:00,
2013-02-18 17:08:00,62.5,16.2,29.86,North,0,0.0,0.0,17,0.00,,,0.00,WUHU216HW,2013-02-19 00:08:00,
2013-02-18 17:10:00,62.5,16.2,29.86,North,0,0.0,0.0,17,0.00,,,0.00,WUHU216HW,2013-02-19 00:10:00,
2013-02-18 17:13:00,62.5,16.2,29.86,North,0,0.0,0.0,17,0.00,,,0.00,WUHU216HW,2013-02-19 00:13:00,
2013-02-18 17:15:00,62.5,16.2,29.86,North,0,0.0,0.0,17,0.00,,,0.00,WUHU216HW,2013-02-19 00:15:00,
2013-02-18 17:18:00,62.3,16.1,29.86,North,0,0.0,0.0,17,0.00,,,0.00,WUHU216HW,2013-02-19 00:18:00,
2013-02-18 17:20:00,62.3,16.1,29.86,North,0,0.0,0.0,17,0.00,,,0.00,WUHU216HW,2013-02-19 00:20:00,
2013-02-18 17:21:00,62.3,16.1,29.86,North,0,0.0,0.0,17,0.00,,,0.00,WUHU216HW,2013-02-19 00:21:00,
2013-02-18 17:23:00,62.3,16.1,29.86,North,0,0.0,0.0,17,0.00,,,0.00,WUHU216HW,2013-02-19 00:23:00,
2013-02-18 17:25:00,62.3,16.1,29.86,North,0,0.0,0.0,17,0.00,,,0.00,WUHU216HW,2013-02-19 00:25:00,
2013-02-18 17:26:00,62.3,16.1,29.86,North,0,0.0,0.0,17,0.00,,,0.00,WUHU216HW,2013-02-19 00:26:00,
2013-02-18 17:29:00,62.3,16.1,29.86,North,0,0.0,0.0,17,0.00,,,0.00,WUHU216HW,2013-02-19 00:29:00,
2013-02-18 17:31:00,62.1,15.9,29.86,North,0,0.0,0.0,17,0.00,,,0.00,WUHU216HW,2013-02-19 00:31:00,
2013-02-18 17:34:00,62.1,15.9,29.86,North,0,0.0,0.0,17,0.00,,,0.00,WUHU216HW,2013-02-19 00:34:00,
2013-02-18 17:36:00,61.9,15.8,29.85,North,0,0.0,0.0,17,0.00,,,0.00,WUHU216HW,2013-02-19 00:36:00,
2013-02-18 17:40:00,61.9,17.4,29.86,North,0,0.0,0.0,18,0.00,,,0.00,WUHU216HW,2013-02-19 00:40:00,
2013-02-18 17:41:00,61.9,17.4,29.85,North,0,0.0,0.0,18,0.00,,,0.00,WUHU216HW,2013-02-19 00:41:00,
2013-02-18 17:45:00,61.7,17.2,29.85,North,0,0.0,0.0,18,0.00,,,0.00,WUHU216HW,2013-02-19 00:45:00,
2013-02-18 17:47:00,61.6,17.1,29.86,North,0,0.0,0.0,18,0.00,,,0.00,WUHU216HW,2013-02-19 00:47:00,
2013-02-18 17:50:00,61.4,16.9,29.85,North,0,0.0,0.0,18,0.00,,,0.00,WUHU216HW,2013-02-19 00:50:00,
2013-02-18 17:52:00,61.2,16.7,29.86,North,0,0.0,0.0,18,0.00,,,0.00,WUHU216HW,2013-02-19 00:52:00,
2013-02-18 17:55:00,60.8,18.1,29.86,North,0,0.0,0.0,19,0.00,,,0.00,WUHU216HW,2013-02-19 00:55:00,
2013-02-18 17:58:00,60.8,18.1,29.86,North,0,0.0,0.0,19,0.00,,,0.00,WUHU216HW,2013-02-19 00:58:00,
2013-02-18 18:00:00,60.7,17.9,29.86,North,0,0.0,0.0,19,0.00,,,0.00,WUHU216HW,2013-02-19 01:00:00,
2013-02-18 18:03:00,60.5,17.7,29.86,North,0,0.0,0.0,19,0.00,,,0.00,WUHU216HW,2013-02-19 01:03:00,
2013-02-18 18:05:00,60.3,17.6,29.86,North,0,0.0,0.0,19,0.00,,,0.00,WUHU216HW,2013-02-19 01:05:00,
2013-02-18 18:08:00,60.1,17.4,29.86,North,0,0.0,0.0,19,0.00,,,0.00,WUHU216HW,2013-02-19 01:08:00,
2013-02-18 18:10:00,59.9,17.3,29.86,North,0,0.0,0.0,19,0.00,,,0.00,WUHU216HW,2013-02-19 01:10:00,
2013-02-18 18:14:00,59.8,17.1,29.86,North,0,0.0,0.0,19,0.00,,,0.00,WUHU216HW,2013-02-19 01:14:00,
2013-02-18 18:16:00,59.6,16.9,29.86,North,0,0.0,0.0,19,0.00,,,0.00,WUHU216HW,2013-02-19 01:16:00,
2013-02-18 18:19:00,59.2,18.2,29.86,North,0,0.0,0.0,20,0.00,,,0.00,WUHU216HW,2013-02-19 01:19:00,
2013-02-18 18:20:00,59.2,18.2,29.86,North,0,0.0,0.0,20,0.00,,,0.00,WUHU216HW,2013-02-19 01:20:00,
2013-02-18 18:21:00,59.0,18.0,29.86,North,0,0.0,0.0,20,0.00,,,0.00,WUHU216HW,2013-02-19 01:21:00,
2013-02-18 18:24:00,58.7,16.2,29.86,North,0,0.0,0.0,19,0.00,,,0.00,WUHU216HW,2013-02-19 01:24:00,
2013-02-18 18:25:00,58.7,16.2,29.86,North,0,0.0,0.0,19,0.00,,,0.00,WUHU216HW,2013-02-19 01:25:00,
2013-02-18 18:26:00,58.7,17.7,29.86,North,0,0.0,0.0,20,0.00,,,0.00,WUHU216HW,2013-02-19 01:26:00,
2013-02-18 18:30:00,58.3,17.5,29.86,North,0,0.0,0.0,20,0.00,,,0.00,WUHU216HW,2013-02-19 01:30:00,
2013-02-18 18:32:00,58.3,17.5,29.86,North,0,0.0,0.0,20,0.00,,,0.00,WUHU216HW,2013-02-19 01:32:00,
2013-02-18 18:35:00,58.0,17.1,29.86,North,0,0.0,0.0,20,0.00,,,0.00,WUHU216HW,2013-02-19 01:35:00,
2013-02-18 18:36:00,58.0,17.1,29.86,North,0,0.0,0.0,20,0.00,,,0.00,WUHU216HW,2013-02-19 01:36:00,
2013-02-18 18:38:00,58.0,17.1,29.86,North,0,0.0,0.0,20,0.00,,,0.00,WUHU216HW,2013-02-19 01:38:00,
2013-02-18 18:41:00,57.8,17.0,29.86,North,0,0.0,0.0,20,0.00,,,0.00,WUHU216HW,2013-02-19 01:41:00,
2013-02-18 18:42:00,57.8,17.0,29.86,North,0,0.0,0.0,20,0.00,,,0.00,WUHU216HW,2013-02-19 01:42:00,
2013-02-18 18:43:00,57.6,16.8,29.86,North,0,0.0,0.0,20,0.00,,,0.00,WUHU216HW,2013-02-19 01:43:00,
2013-02-18 18:46:00,57.4,16.8,29.86,North,0,0.0,0.0,20,0.00,,,0.00,WUHU216HW,2013-02-19 01:46:00,
2013-02-18 18:47:00,57.4,16.8,29.86,North,0,0.0,0.0,20,0.00,,,0.00,WUHU216HW,2013-02-19 01:47:00,
2013-02-18 18:48:00,57.2,16.6,29.86,North,0,0.0,0.0,20,0.00,,,0.00,WUHU216HW,2013-02-19 01:48:00,
2013-02-18 18:52:00,57.1,16.4,29.86,North,0,0.0,0.0,20,0.00,,,0.00,WUHU216HW,2013-02-19 01:52:00,
2013-02-18 18:53:00,56.9,16.3,29.86,North,0,0.0,0.0,20,0.00,,,0.00,WUHU216HW,2013-02-19 01:53:00,
2013-02-18 18:57:00,56.7,16.1,29.86,North,0,0.0,0.0,20,0.00,,,0.00,WUHU216HW,2013-02-19 01:57:00,
2013-02-18 18:58:00,56.7,16.1,29.86,North,0,0.0,0.0,20,0.00,,,0.00,WUHU216HW,2013-02-19 01:58:00,
2013-02-18 19:02:00,56.5,16.0,29.86,North,0,0.0,0.0,20,0.00,,,0.00,WUHU216HW,2013-02-19 02:02:00,
2013-02-18 19:03:00,56.3,15.8,29.86,North,0,0.0,0.0,20,0.00,,,0.00,WUHU216HW,2013-02-19 02:03:00,
2013-02-18 19:04:00,56.3,15.8,29.86,North,0,0.0,0.0,20,0.00,,,0.00,WUHU216HW,2013-02-19 02:04:00,
2013-02-18 19:08:00,56.2,16.7,29.86,North,0,0.0,0.0,21,0.00,,,0.00,WUHU216HW,2013-02-19 02:08:00,
2013-02-18 19:09:00,56.2,16.7,29.86,North,0,0.0,0.0,21,0.00,,,0.00,WUHU216HW,2013-02-19 02:09:00,
2013-02-18 19:13:00,55.8,16.4,29.86,North,0,0.0,0.0,21,0.00,,,0.00,WUHU216HW,2013-02-19 02:13:00,
2013-02-18 19:14:00,55.8,16.4,29.86,North,0,0.0,0.0,21,0.00,,,0.00,WUHU216HW,2013-02-19 02:14:00,
2013-02-18 19:15:00,55.8,16.4,29.86,North,0,0.0,0.0,21,0.00,,,0.00,WUHU216HW,2013-02-19 02:15:00,
2013-02-18 19:18:00,55.4,16.0,29.86,North,0,0.0,0.0,21,0.00,,,0.00,WUHU216HW,2013-02-19 02:18:00,
2013-02-18 19:20:00,55.4,16.0,29.86,North,0,0.0,0.0,21,0.00,,,0.00,WUHU216HW,2013-02-19 02:20:00,
2013-02-18 19:24:00,55.1,15.8,29.86,North,0,0.0,0.0,21,0.00,,,0.00,WUHU216HW,2013-02-19 02:24:00,
2013-02-18 19:25:00,55.1,15.8,29.86,North,0,0.0,0.0,21,0.00,,,0.00,WUHU216HW,2013-02-19 02:25:00,
2013-02-18 19:26:00,55.1,15.8,29.86,North,0,0.0,0.0,21,0.00,,,0.00,WUHU216HW,2013-02-19 02:26:00,
2013-02-18 19:30:00,54.9,15.6,29.86,North,0,0.0,0.0,21,0.00,,,0.00,WUHU216HW,2013-02-19 02:30:00,
2013-02-18 19:31:00,54.9,15.6,29.86,North,0,0.0,0.0,21,0.00,,,0.00,WUHU216HW,2013-02-19 02:31:00,
2013-02-18 19:35:00,54.7,16.4,29.86,North,0,0.0,0.0,22,0.00,,,0.00,WUHU216HW,2013-02-19 02:35:00,
2013-02-18 19:36:00,54.5,15.2,29.86,North,0,0.0,0.0,21,0.00,,,0.00,WUHU216HW,2013-02-19 02:36:00,
2013-02-18 19:40:00,54.4,16.0,29.86,North,0,0.0,0.0,22,0.00,,,0.00,WUHU216HW,2013-02-19 02:40:00,
2013-02-18 19:41:00,54.4,16.0,29.86,North,0,0.0,0.0,22,0.00,,,0.00,WUHU216HW,2013-02-19 02:41:00,
2013-02-18 19:42:00,54.4,16.0,29.86,North,0,0.0,0.0,22,0.00,,,0.00,WUHU216HW,2013-02-19 02:42:00,
2013-02-18 19:45:00,54.4,16.0,29.86,North,0,0.0,0.0,22,0.00,,,0.00,WUHU216HW,2013-02-19 02:45:00,
2013-02-18 19:47:00,54.2,15.8,29.86,North,0,0.0,0.0,22,0.00,,,0.00,WUHU216HW,2013-02-19 02:47:00,
2013-02-18 19:51:00,54.0,15.8,29.86,North,0,0.0,0.0,22,0.00,,,0.00,WUHU216HW,2013-02-19 02:51:00,
2013-02-18 19:52:00,54.0,15.8,29.86,North,0,0.0,0.0,22,0.00,,,0.00,WUHU216HW,2013-02-19 02:52:00,
2013-02-18 19:53:00,54.2,15.8,29.86,North,0,0.0,0.0,22,0.00,,,0.00,WUHU216HW,2013-02-19 02:53:00,
2013-02-18 19:56:00,54.0,15.8,29.86,North,0,0.0,0.0,22,0.00,,,0.00,WUHU216HW,2013-02-19 02:56:00,
2013-02-18 19:57:00,54.0,15.8,29.86,North,0,0.0,0.0,22,0.00,,,0.00,WUHU216HW,2013-02-19 02:57:00,
2013-02-18 19:58:00,54.0,15.8,29.86,North,0,0.0,0.0,22,0.00,,,0.00,WUHU216HW,2013-02-19 02:58:00,
2013-02-18 20:01:00,54.0,15.8,29.86,North,0,0.0,0.0,22,0.00,,,0.00,WUHU216HW,2013-02-19 03:01:00,
2013-02-18 20:03:00,54.0,15.8,29.86,North,0,0.0,0.0,22,0.00,,,0.00,WUHU216HW,2013-02-19 03:03:00,
2013-02-18 20:06:00,53.8,15.6,29.86,North,0,0.0,0.0,22,0.00,,,0.00,WUHU216HW,2013-02-19 03:06:00,
2013-02-18 20:08:00,53.8,15.6,29.86,North,0,0.0,0.0,22,0.00,,,0.00,WUHU216HW,2013-02-19 03:08:00,
2013-02-18 20:13:00,53.6,15.4,29.87,North,0,0.0,0.0,22,0.00,,,0.00,WUHU216HW,2013-02-19 03:13:00,
2013-02-18 20:17:00,53.5,16.2,29.87,North,0,0.0,0.0,23,0.00,,,0.00,WUHU216HW,2013-02-19 03:17:00,
2013-02-18 20:18:00,53.3,16.0,29.87,North,0,0.0,0.0,23,0.00,,,0.00,WUHU216HW,2013-02-19 03:18:00,
2013-02-18 20:19:00,53.3,16.0,29.87,North,0,0.0,0.0,23,0.00,,,0.00,WUHU216HW,2013-02-19 03:19:00,
2013-02-18 20:24:00,53.1,15.9,29.87,North,0,0.0,0.0,23,0.00,,,0.00,WUHU216HW,2013-02-19 03:24:00,
2013-02-18 20:29:00,52.9,15.8,29.87,North,0,0.0,0.0,23,0.00,,,0.00,WUHU216HW,2013-02-19 03:29:00,
2013-02-18 20:34:00,52.7,15.6,29.87,North,0,0.0,0.0,23,0.00,,,0.00,WUHU216HW,2013-02-19 03:34:00,
2013-02-18 20:35:00,52.7,15.6,29.87,North,0,0.0,0.0,23,0.00,,,0.00,WUHU216HW,2013-02-19 03:35:00,
2013-02-18 20:40:00,52.6,15.5,29.87,North,0,0.0,0.0,23,0.00,,,0.00,WUHU216HW,2013-02-19 03:40:00,
2013-02-18 20:45:00,52.4,16.3,29.86,North,0,0.0,0.0,24,0.00,,,0.00,WUHU216HW,2013-02-19 03:45:00,
2013-02-18 20:50:00,52.9,15.8,29.86,North,0,0.0,0.0,23,0.00,,,0.00,WUHU216HW,2013-02-19 03:50:00,
2013-02-18 20:55:00,52.9,15.8,29.87,North,0,0.0,0.0,23,0.00,,,0.00,WUHU216HW,2013-02-19 03:55:00,
2013-02-18 20:56:00,52.7,15.6,29.87,North,0,0.0,0.0,23,0.00,,,0.00,WUHU216HW,2013-02-19 03:56:00,
2013-02-18 21:01:00,52.2,16.1,29.87,North,0,0.0,0.0,24,0.00,,,0.00,WUHU216HW,2013-02-19 04:01:00,
2013-02-18 21:06:00,51.1,15.2,29.87,North,0,0.0,0.0,24,0.00,,,0.00,WUHU216HW,2013-02-19 04:06:00,
2013-02-18 21:11:00,50.6,15.7,29.87,North,0,0.0,0.0,25,0.00,,,0.00,WUHU216HW,2013-02-19 04:11:00,
2013-02-18 21:16:00,50.0,15.2,29.87,North,0,0.0,0.0,25,0.00,,,0.00,WUHU216HW,2013-02-19 04:16:00,
2013-02-18 21:17:00,50.0,15.2,29.88,North,0,0.0,0.0,25,0.00,,,0.00,WUHU216HW,2013-02-19 04:17:00,
2013-02-18 21:21:00,49.9,15.0,29.87,North,0,0.0,0.0,25,0.00,,,0.00,WUHU216HW,2013-02-19 04:21:00,
2013-02-18 21:22:00,49.7,15.0,29.87,North,0,0.0,0.0,25,0.00,,,0.00,WUHU216HW,2013-02-19 04:22:00,
2013-02-18 21:27:00,49.7,15.9,29.87,North,0,0.0,0.0,26,0.00,,,0.00,WUHU216HW,2013-02-19 04:27:00,
2013-02-18 21:28:00,49.7,15.9,29.87,North,0,0.0,0.0,26,0.00,,,0.00,WUHU216HW,2013-02-19 04:28:00,
2013-02-18 21:29:00,49.5,15.7,29.87,North,0,0.0,0.0,26,0.00,,,0.00,WUHU216HW,2013-02-19 04:29:00,
2013-02-18 21:32:00,49.3,16.5,29.87,North,0,0.0,0.0,27,0.00,,,0.00,WUHU216HW,2013-02-19 04:32:00,
2013-02-18 21:33:00,49.3,16.5,29.87,North,0,0.0,0.0,27,0.00,,,0.00,WUHU216HW,2013-02-19 04:33:00,
2013-02-18 21:34:00,49.3,16.5,29.87,North,0,0.0,0.0,27,0.00,,,0.00,WUHU216HW,2013-02-19 04:34:00,
2013-02-18 21:38:00,49.0,16.1,29.87,North,0,0.0,0.0,27,0.00,,,0.00,WUHU216HW,2013-02-19 04:38:00,
2013-02-18 21:41:00,48.6,15.8,29.88,North,0,0.0,0.0,27,0.00,,,0.00,WUHU216HW,2013-02-19 04:41:00,
2013-02-18 21:43:00,48.6,15.8,29.87,North,0,0.0,0.0,27,0.00,,,0.00,WUHU216HW,2013-02-19 04:43:00,
2013-02-18 21:46:00,48.4,16.7,29.88,North,0,0.0,0.0,28,0.00,,,0.00,WUHU216HW,2013-02-19 04:46:00,
2013-02-18 21:48:00,48.4,16.7,29.88,North,0,0.0,0.0,28,0.00,,,0.00,WUHU216HW,2013-02-19 04:48:00,
2013-02-18 21:49:00,48.2,16.5,29.88,North,0,0.0,0.0,28,0.00,,,0.00,WUHU216HW,2013-02-19 04:49:00,
2013-02-18 21:53:00,48.2,16.5,29.88,North,0,0.0,0.0,28,0.00,,,0.00,WUHU216HW,2013-02-19 04:53:00,
2013-02-18 21:54:00,48.2,16.5,29.88,North,0,0.0,0.0,28,0.00,,,0.00,WUHU216HW,2013-02-19 04:54:00,
2013-02-18 21:58:00,48.1,16.3,29.88,North,0,0.0,0.0,28,0.00,,,0.00,WUHU216HW,2013-02-19 04:58:00,
2013-02-18 21:59:00,48.1,16.3,29.88,North,0,0.0,0.0,28,0.00,,,0.00,WUHU216HW,2013-02-19 04:59:00,
2013-02-18 22:00:00,48.1,16.3,29.88,North,0,0.0,0.0,28,0.00,,,0.00,WUHU216HW,2013-02-19 05:00:00,
2013-02-18 22:02:00,48.1,16.3,29.88,North,0,0.0,0.0,28,0.00,,,0.00,WUHU216HW,2013-02-19 05:02:00,
2013-02-18 22:05:00,47.9,16.2,29.88,North,0,0.0,0.0,28,0.00,,,0.00,WUHU216HW,2013-02-19 05:05:00,
2013-02-18 22:07:00,47.9,16.2,29.88,North,0,0.0,0.0,28,0.00,,,0.00,WUHU216HW,2013-02-19 05:07:00,
2013-02-18 22:08:00,47.9,16.2,29.88,North,0,0.0,0.0,28,0.00,,,0.00,WUHU216HW,2013-02-19 05:08:00,
2013-02-18 22:10:00,47.7,16.0,29.88,North,0,0.0,0.0,28,0.00,,,0.00,WUHU216HW,2013-02-19 05:10:00,
2013-02-18 22:12:00,47.7,16.9,29.88,North,0,0.0,0.0,29,0.00,,,0.00,WUHU216HW,2013-02-19 05:12:00,
2013-02-18 22:14:00,47.5,16.7,29.88,North,0,0.0,0.0,29,0.00,,,0.00,WUHU216HW,2013-02-19 05:14:00,
2013-02-18 22:16:00,47.5,16.7,29.88,North,0,0.0,0.0,29,0.00,,,0.00,WUHU216HW,2013-02-19 05:16:00,
2013-02-18 22:17:00,47.5,16.7,29.88,North,0,0.0,0.0,29,0.00,,,0.00,WUHU216HW,2013-02-19 05:17:00,
2013-02-18 22:19:00,47.5,16.7,29.88,North,0,0.0,0.0,29,0.00,,,0.00,WUHU216HW,2013-02-19 05:19:00,
2013-02-18 22:21:00,47.3,16.7,29.88,North,0,0.0,0.0,29,0.00,,,0.00,WUHU216HW,2013-02-19 05:21:00,
2013-02-18 22:22:00,47.3,16.7,29.88,North,0,0.0,0.0,29,0.00,,,0.00,WUHU216HW,2013-02-19 05:22:00,
2013-02-18 22:23:00,47.3,16.7,29.88,North,0,0.0,0.0,29,0.00,,,0.00,WUHU216HW,2013-02-19 05:23:00,
2013-02-18 22:24:00,47.3,16.7,29.88,North,0,0.0,0.0,29,0.00,,,0.00,WUHU216HW,2013-02-19 05:24:00,
2013-02-18 22:27:00,47.2,16.5,29.88,North,0,0.0,0.0,29,0.00,,,0.00,WUHU216HW,2013-02-19 05:27:00,
2013-02-18 22:28:00,47.2,16.5,29.88,North,0,0.0,0.0,29,0.00,,,0.00,WUHU216HW,2013-02-19 05:28:00,
2013-02-18 22:29:00,47.2,16.5,29.88,North,0,0.0,0.0,29,0.00,,,0.00,WUHU216HW,2013-02-19 05:29:00,
2013-02-18 22:32:00,47.2,16.5,29.88,North,0,0.0,0.0,29,0.00,,,0.00,WUHU216HW,2013-02-19 05:32:00,
2013-02-18 22:33:00,47.3,16.7,29.88,North,0,0.0,0.0,29,0.00,,,0.00,WUHU216HW,2013-02-19 05:33:00,
2013-02-18 22:35:00,47.3,16.7,29.88,North,0,0.0,0.0,29,0.00,,,0.00,WUHU216HW,2013-02-19 05:35:00,
2013-02-18 22:37:00,47.2,16.5,29.88,North,0,0.0,0.0,29,0.00,,,0.00,WUHU216HW,2013-02-19 05:37:00,
2013-02-18 22:39:00,47.2,16.5,29.88,North,0,0.0,0.0,29,0.00,,,0.00,WUHU216HW,2013-02-19 05:39:00,
2013-02-18 22:41:00,47.2,16.5,29.88,North,0,0.0,0.0,29,0.00,,,0.00,WUHU216HW,2013-02-19 05:41:00,
2013-02-18 22:43:00,47.0,16.3,29.88,North,0,0.0,0.0,29,0.00,,,0.00,WUHU216HW,2013-02-19 05:43:00,
2013-02-18 22:44:00,47.0,16.3,29.88,North,0,0.0,0.0,29,0.00,,,0.00,WUHU216HW,2013-02-19 05:44:00,
2013-02-18 22:45:00,47.0,16.3,29.88,North,0,0.0,0.0,29,0.00,,,0.00,WUHU216HW,2013-02-19 05:45:00,
2013-02-18 22:47:00,47.0,16.3,29.88,North,0,0.0,0.0,29,0.00,,,0.00,WUHU216HW,2013-02-19 05:47:00,
2013-02-18 22:49:00,47.0,16.3,29.88,North,0,0.0,0.0,29,0.00,,,0.00,WUHU216HW,2013-02-19 05:49:00,
2013-02-18 22:50:00,47.0,16.3,29.88,North,0,0.0,0.0,29,0.00,,,0.00,WUHU216HW,2013-02-19 05:50:00,
2013-02-18 22:52:00,47.0,16.3,29.88,North,0,0.0,0.0,29,0.00,,,0.00,WUHU216HW,2013-02-19 05:52:00,
2013-02-18 22:54:00,47.0,16.3,29.88,North,0,0.0,0.0,29,0.00,,,0.00,WUHU216HW,2013-02-19 05:54:00,
2013-02-18 22:55:00,47.0,16.3,29.88,North,0,0.0,0.0,29,0.00,,,0.00,WUHU216HW,2013-02-19 05:55:00,
2013-02-18 22:57:00,47.0,16.3,29.88,North,0,0.0,0.0,29,0.00,,,0.00,WUHU216HW,2013-02-19 05:57:00,
2013-02-18 23:00:00,47.0,16.3,29.88,North,0,0.0,0.0,29,0.00,,,0.00,WUHU216HW,2013-02-19 06:00:00,
2013-02-18 23:02:00,47.0,16.3,29.88,North,0,0.0,0.0,29,0.00,,,0.00,WUHU216HW,2013-02-19 06:02:00,
2013-02-18 23:05:00,47.0,16.3,29.88,North,0,0.0,0.0,29,0.00,,,0.00,WUHU216HW,2013-02-19 06:05:00,
2013-02-18 23:06:00,47.0,16.3,29.88,North,0,0.0,0.0,29,0.00,,,0.00,WUHU216HW,2013-02-19 06:06:00,
2013-02-18 23:07:00,47.0,16.3,29.88,North,0,0.0,0.0,29,0.00,,,0.00,WUHU216HW,2013-02-19 06:07:00,
2013-02-18 23:08:00,47.0,16.3,29.88,North,0,0.0,0.0,29,0.00,,,0.00,WUHU216HW,2013-02-19 06:08:00,
2013-02-18 23:11:00,47.0,16.3,29.88,North,0,0.0,0.0,29,0.00,,,0.00,WUHU216HW,2013-02-19 06:11:00,
2013-02-18 23:12:00,46.8,16.1,29.88,North,0,0.0,0.0,29,0.00,,,0.00,WUHU216HW,2013-02-19 06:12:00,
2013-02-18 23:13:00,46.8,16.1,29.88,North,0,0.0,0.0,29,0.00,,,0.00,WUHU216HW,2013-02-19 06:13:00,
2013-02-18 23:16:00,46.8,16.1,29.87,North,0,0.0,0.0,29,0.00,,,0.00,WUHU216HW,2013-02-19 06:16:00,
2013-02-18 23:18:00,46.8,16.1,29.87,North,0,0.0,0.0,29,0.00,,,0.00,WUHU216HW,2013-02-19 06:18:00,
2013-02-18 23:19:00,46.8,16.1,29.87,North,0,0.0,0.0,29,0.00,,,0.00,WUHU216HW,2013-02-19 06:19:00,
2013-02-18 23:21:00,46.8,16.1,29.87,North,0,0.0,0.0,29,0.00,,,0.00,WUHU216HW,2013-02-19 06:21:00,
2013-02-18 23:23:00,46.8,16.1,29.87,North,0,0.0,0.0,29,0.00,,,0.00,WUHU216HW,2013-02-19 06:23:00,
2013-02-18 23:24:00,46.8,16.1,29.87,North,0,0.0,0.0,29,0.00,,,0.00,WUHU216HW,2013-02-19 06:24:00,
2013-02-18 23:27:00,46.6,16.0,29.87,North,0,0.0,0.0,29,0.00,,,0.00,WUHU216HW,2013-02-19 06:27:00,
2013-02-18 23:28:00,46.6,16.0,29.87,North,0,0.0,0.0,29,0.00,,,0.00,WUHU216HW,2013-02-19 06:28:00,
2013-02-18 23:29:00,46.6,16.0,29.87,North,0,0.0,0.0,29,0.00,,,0.00,WUHU216HW,2013-02-19 06:29:00,
2013-02-18 23:30:00,46.6,16.0,29.87,North,0,0.0,0.0,29,0.00,,,0.00,WUHU216HW,2013-02-19 06:30:00,
2013-02-18 23:33:00,46.4,15.9,29.87,North,0,0.0,0.0,29,0.00,,,0.00,WUHU216HW,2013-02-19 06:33:00,
2013-02-18 23:35:00,46.4,15.9,29.87,North,0,0.0,0.0,29,0.00,,,0.00,WUHU216HW,2013-02-19 06:35:00,
2013-02-18 23:38:00,46.3,15.7,29.87,North,0,0.0,0.0,29,0.00,,,0.00,WUHU216HW,2013-02-19 06:38:00,
2013-02-18 23:39:00,46.3,15.7,29.87,North,0,0.0,0.0,29,0.00,,,0.00,WUHU216HW,2013-02-19 06:39:00,
2013-02-18 23:41:00,46.3,16.6,29.87,North,0,0.0,0.0,30,0.00,,,0.00,WUHU216HW,2013-02-19 06:41:00,
2013-02-18 23:44:00,46.1,16.4,29.87,North,0,0.0,0.0,30,0.00,,,0.00,WUHU216HW,2013-02-19 06:44:00,
2013-02-18 23:45:00,45.9,16.3,29.87,North,0,0.0,0.0,30,0.00,,,0.00,WUHU216HW,2013-02-19 06:45:00,
2013-02-18 23:46:00,45.9,16.9,29.87,North,0,0.0,0.0,31,0.00,,,0.00,WUHU216HW,2013-02-19 06:46:00,
2013-02-18 23:47:00,45.7,16.1,29.87,North,0,0.0,0.0,30,0.00,,,0.00,WUHU216HW,2013-02-19 06:47:00,
2013-02-18 23:49:00,45.7,16.7,29.87,North,0,0.0,0.0,31,0.00,,,0.00,WUHU216HW,2013-02-19 06:49:00,
2013-02-18 23:50:00,45.7,16.7,29.87,North,0,0.0,0.0,31,0.00,,,0.00,WUHU216HW,2013-02-19 06:50:00,
2013-02-18 23:51:00,45.7,16.7,29.87,North,0,0.0,0.0,31,0.00,,,0.00,WUHU216HW,2013-02-19 06:51:00,
2013-02-18 23:53:00,45.7,16.1,29.87,North,0,0.0,0.0,30,0.00,,,0.00,WUHU216HW,2013-02-19 06:53:00,
2013-02-18 23:55:00,45.7,16.1,29.87,North,0,0.0,0.0,30,0.00,,,0.00,WUHU216HW,2013-02-19 06:55:00,
2013-02-18 23:56:00,45.7,16.1,29.87,North,0,0.0,0.0,30,0.00,,,0.00,WUHU216HW,2013-02-19 06:56:00,
2013-02-18 23:57:00,45.7,16.1,29.87,North,0,0.0,0.0,30,0.00,,,0.00,WUHU216HW,2013-02-19 06:57:00,
2013-02-18 23:58:00,45.5,15.9,29.87,North,0,0.0,0.0,30,0.00,,,0.00,WUHU216HW,2013-02-19 06:58:00,